DL9MFL-6 Weather Reports


time (UTC)temp
F
wind
direction
speed
knots
gust
knots
rain 1hr
in
rain 24hr
in
rain mn
in
humidity
%
barometer
mb
20260505185201 57 260 1.7 5.2 0.00 0.02 0.01 81 1005.5
20260505185102 57 260 1.7 5.2 0.00 0.02 0.01 81 1005.5
20260505185003 57 260 1.7 5.2 0.00 0.03 0.01 81 1005.5
20260505184903 57 260 2.6 5.2 0.00 0.03 0.01 81 1005.5
20260505184803 57 260 2.6 5.2 0.00 0.04 0.01 80 1005.5
20260505184701 57 265 2.6 5.2 0.00 0.04 0.01 80 1005.5
20260505184603 57 265 2.6 5.2 0.00 0.05 0.01 80 1005.6
20260505184503 57 264 2.6 5.2 0.00 0.06 0.01 80 1005.6
20260505184403 57 264 2.6 5.2 0.00 0.06 0.01 80 1005.6
20260505184302 57 265 2.6 5.2 0.00 0.06 0.01 80 1005.6
20260505184201 57 264 2.6 6.1 0.00 0.06 0.01 79 1005.5
20260505184102 57 268 2.6 6.1 0.00 0.06 0.01 79 1005.5
20260505184002 57 268 2.6 6.1 0.00 0.06 0.01 79 1005.5
20260505183903 57 267 2.6 6.1 0.00 0.06 0.01 79 1005.5
20260505183803 57 261 2.6 6.1 0.00 0.06 0.01 79 1005.5
20260505183701 57 261 2.6 6.1 0.00 0.06 0.01 79 1005.5
20260505183603 57 249 2.6 6.1 0.00 0.06 0.01 79 1005.4
20260505183503 57 247 2.6 6.1 0.00 0.06 0.01 79 1005.5
20260505183403 57 248 2.6 6.1 0.00 0.06 0.01 79 1005.5
20260505183303 57 245 2.6 6.1 0.00 0.06 0.01 79 1005.5
20260505183205 57 256 2.6 5.2 0.00 0.06 0.01 79 1005.5
20260505183200 57 257 2.6 5.2 0.00 0.06 0.01 79 1005.5
20260505183103 57 246 2.6 5.2 0.00 0.06 0.01 79 1005.4
20260505183003 57 250 2.6 5.2 0.00 0.06 0.01 78 1005.4
20260505182903 57 250 2.6 5.2 0.00 0.06 0.01 78 1005.3
20260505182803 57 244 2.6 5.2 0.00 0.06 0.01 78 1005.3
20260505182700 57 259 2.6 5.2 0.00 0.06 0.01 78 1005.3
20260505182601 57 259 2.6 5.2 0.00 0.06 0.01 78 1005.3
20260505182500 57 259 2.6 5.2 0.00 0.06 0.01 78 1005.3
20260505182400 57 257 2.6 5.2 0.00 0.06 0.01 78 1005.3
20260505182300 57 257 2.6 5.2 0.00 0.06 0.01 78 1005.3
20260505182201 57 255 2.6 5.2 0.00 0.06 0.01 78 1005.3
20260505182100 57 257 2.6 5.2 0.00 0.06 0.01 78 1005.2
20260505182000 58 260 2.6 5.2 0.00 0.06 0.01 78 1005.2
20260505181900 58 261 2.6 5.2 0.00 0.06 0.01 78 1005.2
20260505181800 58 256 2.6 5.2 0.00 0.06 0.01 78 1005.2
20260505181700 58 257 1.7 3.5 0.00 0.06 0.01 79 1005.2
20260505181601 58 256 1.7 3.5 0.00 0.06 0.01 79 1005.2
20260505181501 58 257 1.7 3.5 0.00 0.06 0.01 79 1005.1
20260505181401 58 254 1.7 3.5 0.00 0.06 0.01 79 1005.2
20260505181301 58 252 1.7 3.5 0.00 0.06 0.01 79 1005.1
20260505181200 58 251 1.7 3.5 0.00 0.06 0.01 79 1005.2
20260505181100 58 252 1.7 3.5 0.00 0.06 0.01 79 1005.1
20260505181001 58 252 2.6 3.5 0.00 0.06 0.01 79 1005.1
20260505180901 58 252 2.6 3.5 0.00 0.06 0.01 79 1005.1
20260505180801 58 252 2.6 3.5 0.00 0.06 0.01 79 1005.1
20260505180700 58 251 2.6 3.5 0.00 0.06 0.01 79 1005.1
20260505180600 58 251 2.6 3.5 0.00 0.06 0.01 79 1005.1
20260505180500 58 255 1.7 3.5 0.00 0.06 0.01 79 1005.0
20260505180400 58 255 1.7 3.5 0.01 0.06 0.01 79 1005.0
20260505180302 58 254 1.7 3.5 0.01 0.06 0.01 79 1005.0
20260505180201 58 254 1.7 3.5 0.01 0.06 0.01 79 1005.0
20260505180100 58 252 1.7 3.5 0.01 0.06 0.01 79 1005.0
20260505180001 58 252 1.7 2.6 0.01 0.06 0.01 79 1004.9
20260505175901 58 252 1.7 2.6 0.01 0.06 0.01 79 1004.9
20260505175801 58 238 1.7 2.6 0.01 0.06 0.01 78 1004.9
20260505175700 58 236 1.7 2.6 0.01 0.06 0.01 79 1004.9
20260505175600 58 236 1.7 2.6 0.01 0.06 0.01 79 1004.9
20260505175500 58 236 1.7 2.6 0.01 0.06 0.01 79 1004.9
20260505175400 58 236 1.7 3.5 0.01 0.06 0.01 79 1004.7
20260505175300 58 236 1.7 3.5 0.01 0.06 0.01 79 1004.7
20260505175201 58 236 1.7 3.5 0.01 0.06 0.01 79 1004.7
20260505175105 58 236 1.7 3.5 0.01 0.06 0.01 79 1004.7
20260505175001 58 236 1.7 3.5 0.01 0.06 0.01 79 1004.7
20260505174901 58 236 1.7 3.5 0.01 0.06 0.01 79 1004.7
20260505174800 58 236 1.7 3.5 0.01 0.06 0.01 79 1004.7
20260505174700 58 236 1.7 3.5 0.01 0.06 0.01 79 1004.7
20260505174601 58 236 1.7 3.5 0.01 0.06 0.01 79 1004.7
20260505174502 59 236 1.7 3.5 0.01 0.06 0.01 79 1004.9
20260505174401 59 236 1.7 3.5 0.01 0.06 0.01 79 1004.7
20260505174300 59 236 1.7 3.5 0.01 0.06 0.01 79 1004.7
20260505174200 59 269 1.7 3.5 0.01 0.06 0.01 80 1004.7
20260505174100 59 233 1.7 4.3 0.01 0.06 0.01 79 1004.6
20260505174000 59 257 1.7 4.3 0.01 0.06 0.01 80 1004.6
20260505173920 59 259 1.7 4.3 0.01 0.06 0.01 80 1004.6
20260505173916 59 259 1.7 4.3 0.01 0.06 0.01 80 1004.5
20260505173912 59 259 1.7 4.3 0.01 0.06 0.01 79 1004.5
20260505173600 59 259 1.7 4.3 0.01 0.06 0.01 79 1004.5
20260505173501 59 259 1.7 4.3 0.01 0.06 0.01 79 1004.5
20260505173400 59 254 1.7 4.3 0.01 0.06 0.01 78 1004.5
20260505173300 59 252 1.7 4.3 0.01 0.06 0.01 78 1004.5
20260505173200 59 250 1.7 4.3 0.01 0.06 0.01 77 1004.5
20260505173100 59 271 1.7 3.5 0.01 0.06 0.01 77 1004.4
20260505173001 59 273 0.9 3.5 0.01 0.06 0.01 76 1004.4
20260505172901 59 290 0.9 3.5 0.01 0.06 0.01 76 1004.3
20260505172800 59 302 0.9 3.5 0.01 0.06 0.01 76 1004.3
20260505172700 59 333 0.9 3.5 0.01 0.06 0.01 76 1004.2
20260505172600 59 29 0.9 3.5 0.01 0.06 0.01 77 1004.2
20260505172500 59 34 0.9 3.5 0.01 0.06 0.01 77 1004.2
20260505172400 59 35 0.9 3.5 0.01 0.06 0.01 77 1004.1
20260505172300 59 35 0.9 3.5 0.01 0.06 0.01 78 1004.1
20260505172201 59 35 0.9 3.5 0.01 0.06 0.01 78 1004.1
20260505172101 59 35 1.7 7.0 0.01 0.06 0.01 77 1004.1
20260505172001 59 35 1.7 7.0 0.01 0.06 0.01 77 1004.1
20260505171901 59 35 1.7 7.0 0.01 0.06 0.01 76 1004.0
20260505171800 59 35 1.7 7.0 0.01 0.06 0.01 77 1004.0
20260505171700 59 63 1.7 7.0 0.01 0.06 0.01 77 1004.0
20260505171600 59 55 2.6 7.0 0.01 0.06 0.01 78 1004.0
20260505171501 59 55 2.6 7.0 0.01 0.06 0.01 78 1004.0
20260505171401 59 37 2.6 8.7 0.01 0.06 0.01 77 1004.0
20260505171301 59 342 3.5 8.7 0.01 0.06 0.01 76 1004.0
20260505171202 59 15 3.5 8.7 0.01 0.06 0.01 76 1004.0
20260505171158 59 15 3.5 8.7 0.01 0.06 0.01 76 1004.0
20260505171058 59 43 3.5 8.7 0.01 0.06 0.01 75 1004.0
20260505170959 59 336 3.5 8.7 0.01 0.06 0.01 75 1004.1
20260505170859 59 15 3.5 8.7 0.01 0.06 0.01 76 1004.0
20260505170757 60 18 3.5 8.7 0.01 0.06 0.01 75 1004.0
20260505170700 60 21 3.5 8.7 0.01 0.06 0.01 76 1004.0
20260505170657 60 33 3.5 8.7 0.01 0.06 0.01 76 1004.0
20260505170556 60 40 3.5 8.7 0.01 0.06 0.01 76 1004.2
20260505170457 60 5 2.6 8.7 0.01 0.06 0.00 75 1004.3
20260505170356 60 342 2.6 7.0 0.00 0.06 0.00 76 1004.3
20260505170257 60 348 2.6 5.2 0.00 0.06 0.00 75 1004.4
20260505170200 60 343 2.6 5.2 0.00 0.06 0.00 74 1004.5
20260505170156 60 344 2.6 5.2 0.00 0.06 0.00 74 1004.5
20260505170055 60 333 1.7 5.2 0.00 0.06 0.00 73 1004.6
20260505165951 60 319 1.7 5.2 0.00 0.06 0.00 73 1004.6
20260505165850 60 323 1.7 4.3 0.00 0.06 0.00 72 1004.7
20260505165750 60 314 1.7 4.3 0.00 0.06 0.00 72 1004.9
20260505165701 60 313 1.7 4.3 0.00 0.06 0.00 72 1004.9
20260505165650 60 313 1.7 4.3 0.00 0.06 0.00 72 1004.9
20260505165551 60 303 2.6 4.3 0.00 0.06 0.00 72 1004.9
20260505165446 60 302 2.6 4.3 0.00 0.06 0.00 72 1004.9
20260505165345 60 302 2.6 4.3 0.00 0.06 0.00 72 1004.9
20260505165245 61 292 2.6 4.3 0.00 0.06 0.00 71 1004.9
20260505165201 61 293 2.6 5.2 0.00 0.06 0.00 71 1004.9
20260505165145 61 294 2.6 5.2 0.00 0.06 0.00 70 1005.0
20260505165043 61 299 2.6 5.2 0.00 0.06 0.00 71 1005.0
20260505164941 61 300 2.6 5.2 0.00 0.06 0.00 71 1005.0
20260505164839 61 304 2.6 5.2 0.00 0.06 0.00 71 1005.0
20260505164739 61 290 2.6 5.2 0.00 0.06 0.00 71 1005.0
20260505164701 61 290 2.6 5.2 0.00 0.06 0.00 71 1005.0
20260505164638 61 311 2.6 5.2 0.00 0.06 0.00 71 1005.0
20260505164537 61 292 2.6 5.2 0.00 0.06 0.00 71 1005.0
20260505164432 61 304 2.6 6.1 0.00 0.06 0.00 71 1005.0
20260505164332 61 298 2.6 6.1 0.00 0.06 0.00 70 1005.0
20260505164232 61 281 2.6 6.1 0.00 0.06 0.00 69 1005.0
20260505164201 61 302 2.6 6.1 0.00 0.06 0.00 68 1005.0
20260505164133 61 291 2.6 6.1 0.00 0.06 0.00 68 1005.1
20260505164035 61 295 2.6 6.1 0.00 0.06 0.00 68 1005.1
20260505163932 61 277 2.6 6.1 0.00 0.06 0.00 67 1005.1
20260505163832 61 299 2.6 6.1 0.00 0.06 0.00 67 1005.1
20260505163733 61 265 2.6 6.1 0.00 0.06 0.00 66 1005.0
20260505163700 61 290 2.6 6.1 0.00 0.06 0.00 66 1005.0
20260505163634 61 290 2.6 6.1 0.00 0.06 0.00 67 1005.0
20260505163530 61 288 2.6 6.1 0.00 0.06 0.00 66 1005.0
20260505163430 61 278 2.6 4.3 0.00 0.06 0.00 67 1005.0
20260505163330 61 297 2.6 5.2 0.00 0.06 0.00 67 1005.0
20260505163230 61 304 2.6 5.2 0.00 0.06 0.00 67 1005.0
20260505163201 61 294 2.6 5.2 0.00 0.06 0.00 67 1005.0
20260505163130 61 298 2.6 5.2 0.00 0.06 0.00 67 1005.0
20260505163030 61 295 2.6 5.2 0.00 0.06 0.00 66 1005.0
20260505162929 61 289 2.6 5.2 0.00 0.06 0.00 66 1004.9
20260505162829 61 292 2.6 5.2 0.00 0.06 0.00 66 1005.0
20260505162729 61 281 2.6 5.2 0.00 0.06 0.00 66 1004.9
20260505162655 61 292 2.6 5.2 0.00 0.06 0.00 65 1005.0
20260505162629 61 319 2.6 5.2 0.00 0.06 0.00 65 1005.0
20260505162529 61 303 2.6 5.2 0.00 0.06 0.00 66 1004.9
20260505162429 61 336 2.6 6.1 0.00 0.06 0.00 65 1004.9
20260505162329 61 304 2.6 7.0 0.00 0.06 0.00 66 1004.9
20260505162229 61 306 2.6 7.0 0.00 0.06 0.00 66 1004.9
20260505162150 62 298 2.6 7.0 0.00 0.06 0.00 66 1005.0
20260505162130 62 292 2.6 7.0 0.00 0.06 0.00 66 1005.0
20260505162028 62 294 2.6 7.0 0.00 0.06 0.00 65 1005.0
20260505161928 62 298 2.6 7.0 0.00 0.06 0.00 65 1005.0
20260505161826 62 288 2.6 7.0 0.00 0.06 0.00 66 1005.0
20260505161723 62 297 2.6 7.0 0.00 0.06 0.00 67 1005.0
20260505161644 62 287 2.6 7.0 0.00 0.06 0.00 67 1005.1
20260505161622 62 292 2.6 7.0 0.00 0.06 0.00 67 1005.1
20260505161522 62 296 3.5 7.0 0.00 0.06 0.00 67 1005.1
20260505161421 62 317 3.5 7.0 0.00 0.06 0.00 68 1005.1
20260505161320 62 300 3.5 6.1 0.00 0.06 0.00 68 1005.1
20260505161217 62 304 3.5 7.0 0.00 0.06 0.00 68 1005.1
20260505161138 62 295 3.5 7.0 0.00 0.06 0.00 67 1005.1
20260505161114 62 322 3.5 7.8 0.00 0.06 0.00 67 1005.1
20260505161014 62 291 3.5 7.8 0.00 0.06 0.00 67 1005.1
20260505160914 62 267 3.5 7.8 0.00 0.06 0.00 68 1005.1
20260505160854 62 308 3.5 7.8 0.00 0.06 0.00 68 1005.1
20260505160847 62 299 3.5 7.8 0.00 0.06 0.00 68 1005.1
20260505160843 62 273 3.5 7.8 0.00 0.06 0.00 68 1005.1
20260505160611 62 294 3.5 7.8 0.00 0.06 0.00 68 1005.1
20260505160510 62 268 3.5 7.8 0.00 0.06 0.00 68 1005.2
20260505160410 62 304 3.5 7.8 0.00 0.06 0.00 68 1005.1
20260505160307 62 296 3.5 7.8 0.00 0.06 0.00 68 1005.1
20260505160204 62 312 3.5 7.8 0.00 0.06 0.00 68 1005.1
20260505160130 62 288 3.5 7.8 0.00 0.06 0.00 68 1005.1
20260505153352 63 288 4.3 8.7 0.00 0.06 0.00 66 1004.9
20260505153250 63 291 4.3 8.7 0.00 0.06 0.00 66 1004.7
20260505153150 63 302 5.2 8.7 0.00 0.06 0.00 66 1004.9
20260505153130 63 285 5.2 8.7 0.00 0.06 0.00 66 1004.9
20260505153050 63 294 5.2 8.7 0.00 0.06 0.00 66 1004.9
20260505152944 63 312 5.2 9.6 0.00 0.06 0.00 65 1004.7
20260505152845 63 266 5.2 9.6 0.00 0.06 0.00 65 1004.9
20260505152744 63 321 5.2 9.6 0.00 0.06 0.00 65 1004.9
20260505152644 63 314 5.2 9.6 0.00 0.06 0.00 65 1004.7
20260505152630 63 319 5.2 9.6 0.00 0.06 0.00 65 1004.7
20260505152543 63 283 5.2 9.6 0.00 0.06 0.00 65 1004.7
20260505152438 63 309 5.2 9.6 0.00 0.06 0.00 64 1004.7
20260505152354 63 323 4.3 9.6 0.00 0.06 0.00 64 1005.0
20260505152350 63 294 5.2 9.6 0.00 0.06 0.00 64 1004.7
20260505152346 63 292 4.3 9.6 0.00 0.06 0.00 64 1004.9
20260505152342 63 296 4.3 9.6 0.00 0.06 0.00 64 1005.0
20260505152123 63 292 3.5 7.8 0.00 0.06 0.00 64 1004.9
20260505152111 63 301 4.3 8.7 0.00 0.06 0.00 64 1004.9
20260505151849 63 295 4.3 7.8 0.00 0.06 0.00 64 1004.9
20260505151845 63 344 3.5 7.8 0.00 0.06 0.00 65 1004.9
20260505151841 63 270 3.5 7.8 0.00 0.06 0.00 64 1004.9
20260505151535 63 290 3.5 7.8 0.00 0.06 0.00 65 1004.9
20260505151434 63 298 3.5 7.8 0.00 0.06 0.00 65 1004.9
20260505151334 63 296 3.5 7.8 0.00 0.06 0.00 65 1004.9
20260505151234 63 292 3.5 7.8 0.00 0.06 0.00 64 1004.9
20260505151134 63 314 3.5 7.8 0.00 0.06 0.00 64 1004.9
20260505151130 63 307 3.5 7.8 0.00 0.06 0.00 64 1004.9
20260505151034 63 319 3.5 7.8 0.00 0.06 0.00 64 1004.9
20260505150934 63 326 3.5 7.8 0.00 0.06 0.00 64 1004.9
20260505150832 62 321 3.5 7.8 0.00 0.06 0.00 65 1004.9
20260505150732 62 313 3.5 7.8 0.00 0.06 0.00 64 1004.9
20260505150635 62 312 3.5 7.8 0.00 0.06 0.00 64 1004.9
20260505150630 62 303 3.5 7.8 0.00 0.06 0.00 64 1004.9
20260505150530 62 296 3.5 7.8 0.00 0.06 0.00 65 1004.9
20260505150432 62 292 2.6 7.8 0.00 0.06 0.00 65 1004.9
20260505150330 62 320 2.6 7.0 0.00 0.06 0.00 65 1004.9
20260505150230 62 298 2.6 7.0 0.00 0.06 0.00 65 1004.9
20260505150129 62 326 2.6 5.2 0.00 0.06 0.00 65 1004.9
20260505140629 63 309 3.5 8.7 0.00 0.06 0.00 61 1004.9
20260505140549 63 303 4.3 8.7 0.00 0.06 0.00 61 1005.0
20260505140444 63 298 4.3 8.7 0.00 0.06 0.00 61 1004.9
20260505140343 63 290 4.3 8.7 0.00 0.06 0.00 61 1004.9
20260505140244 63 331 4.3 8.7 0.00 0.06 0.00 61 1004.9
20260505140144 63 286 4.3 8.7 0.00 0.06 0.00 61 1004.9
20260505140129 63 304 4.3 8.7 0.00 0.06 0.00 61 1004.9
20260505130302 65 288 5.2 10.4 0.00 0.06 0.00 67 1005.1
20260505130201 65 317 6.1 11.3 0.00 0.06 0.00 66 1005.1
20260505130114 65 318 6.1 11.3 0.00 0.06 0.00 65 1005.1
20260505125001 65 283 6.1 11.3 0.00 0.06 0.00 62 1005.1
20260505124901 65 309 6.1 11.3 0.00 0.06 0.00 62 1005.1
20260505124800 65 240 6.1 11.3 0.00 0.06 0.00 62 1005.1
20260505124700 65 310 6.1 10.4 0.00 0.06 0.00 63 1005.0
20260505124607 65 342 6.1 10.4 0.00 0.06 0.00 62 1005.1
20260505124600 65 289 6.1 10.4 0.00 0.06 0.00 62 1005.1
20260505124500 65 294 7.0 10.4 0.00 0.06 0.00 62 1005.0
20260505124401 65 279 7.0 10.4 0.00 0.06 0.00 61 1005.1
20260505124338 65 257 6.1 10.4 0.00 0.06 0.00 58 1005.1
20260505124322 65 270 6.1 10.4 0.00 0.06 0.00 60 1005.2
20260505124318 65 268 6.1 10.4 0.00 0.06 0.00 59 1005.1
20260505124100 65 264 6.1 10.4 0.00 0.06 0.00 58 1005.1
20260505124000 65 277 5.2 10.4 0.00 0.06 0.00 58 1005.1
20260505123900 65 278 5.2 10.4 0.00 0.06 0.00 57 1005.1
20260505123800 66 289 5.2 10.4 0.00 0.06 0.00 57 1005.1
20260505123700 66 280 5.2 10.4 0.00 0.06 0.00 57 1005.2
20260505123606 66 273 5.2 10.4 0.00 0.06 0.00 58 1005.1
20260505123600 66 269 5.2 10.4 0.00 0.06 0.00 58 1005.1
20260505123501 66 253 4.3 9.6 0.00 0.06 0.00 59 1005.1
20260505123402 66 319 4.3 9.6 0.00 0.06 0.00 59 1005.1
20260505123301 66 277 4.3 9.6 0.00 0.06 0.00 58 1005.1
20260505123201 66 254 5.2 9.6 0.00 0.06 0.00 60 1005.1
20260505123102 66 298 5.2 9.6 0.00 0.06 0.00 59 1005.1
20260505123001 66 263 5.2 9.6 0.00 0.06 0.00 59 1005.1
20260505122901 66 261 5.2 9.6 0.00 0.06 0.00 58 1005.2
20260505122801 66 266 5.2 9.6 0.00 0.06 0.00 58 1005.2
20260505122701 66 265 4.3 8.7 0.00 0.06 0.00 60 1005.3
20260505122605 66 242 4.3 8.7 0.00 0.06 0.00 59 1005.3
20260505122601 66 227 4.3 8.7 0.00 0.06 0.00 59 1005.3
20260505122501 66 238 4.3 8.7 0.00 0.06 0.00 59 1005.3
20260505122401 66 269 4.3 8.7 0.00 0.06 0.00 60 1005.3
20260505122300 67 220 4.3 8.7 0.00 0.06 0.00 59 1005.3
20260505122200 67 238 4.3 8.7 0.00 0.06 0.00 57 1005.4
20260505122101 67 240 3.5 8.7 0.00 0.06 0.00 56 1005.3
20260505122001 67 231 3.5 8.7 0.00 0.06 0.00 54 1005.4
20260505121901 67 279 3.5 8.7 0.00 0.06 0.00 53 1005.3
20260505121801 67 268 3.5 8.7 0.00 0.06 0.00 54 1005.4
20260505121701 67 263 3.5 8.7 0.00 0.06 0.00 56 1005.5
20260505121604 67 236 3.5 8.7 0.00 0.06 0.00 58 1005.5
20260505121556 67 229 3.5 8.7 0.00 0.06 0.00 58 1005.5
20260505121456 67 241 3.5 8.7 0.00 0.06 0.00 59 1005.4
20260505121355 67 288 3.5 8.7 0.00 0.06 0.00 59 1005.4
20260505121256 67 219 3.5 8.7 0.00 0.06 0.00 59 1005.4
20260505121156 67 257 3.5 8.7 0.00 0.06 0.00 58 1005.3
20260505121104 67 252 3.5 8.7 0.00 0.06 0.00 58 1005.3
20260505121055 67 261 3.5 8.7 0.00 0.06 0.00 58 1005.3
20260505120954 67 226 3.5 8.7 0.00 0.06 0.00 57 1005.3
20260505120943 67 269 3.5 7.0 0.00 0.06 0.00 56 1005.3
20260505120937 67 250 3.5 7.0 0.00 0.06 0.00 57 1005.3
20260505120933 67 257 3.5 8.7 0.00 0.06 0.00 57 1005.4
20260505120925 67 263 3.5 6.1 0.00 0.06 0.00 56 1005.3
20260505120920 67 268 3.5 7.0 0.00 0.06 0.00 56 1005.3
20260505120705 67 269 3.5 7.0 0.00 0.06 0.00 56 1005.4
20260505120353 67 256 3.5 7.0 0.00 0.06 0.00 56 1005.3
20260505120251 67 275 4.3 7.0 0.00 0.06 0.00 56 1005.3
20260505120151 67 303 4.3 7.8 0.00 0.06 0.00 55 1005.3
20260505120052 67 261 4.3 7.8 0.00 0.06 0.00 56 1005.3
20260505115952 67 309 4.3 7.8 0.00 0.06 0.00 56 1005.3
20260505115852 67 249 4.3 7.8 0.00 0.06 0.00 55 1005.3
20260505115752 68 260 4.3 7.8 0.00 0.06 0.00 55 1005.3
20260505115652 68 234 3.5 7.8 0.00 0.06 0.00 56 1005.3
20260505115601 68 243 3.5 7.8 0.00 0.06 0.00 56 1005.3
20260505115552 68 246 3.5 7.8 0.00 0.06 0.00 56 1005.2
20260505115451 68 266 3.5 7.8 0.00 0.06 0.00 55 1005.3
20260505115347 68 302 3.5 7.8 0.00 0.06 0.00 56 1005.3
20260505115245 68 259 3.5 7.8 0.00 0.06 0.00 58 1005.2
20260505115146 68 256 3.5 7.8 0.00 0.06 0.00 57 1005.3
20260505115101 68 269 3.5 7.8 0.00 0.06 0.00 56 1005.3
20260505115046 68 259 3.5 7.8 0.00 0.06 0.00 56 1005.2
20260505114946 68 271 3.5 7.8 0.00 0.06 0.00 57 1005.3
20260505114842 68 295 4.3 7.8 0.00 0.06 0.00 57 1005.3
20260505114742 68 272 4.3 7.8 0.00 0.06 0.00 56 1005.2
20260505114642 68 236 4.3 7.8 0.00 0.06 0.00 57 1005.2
20260505114601 68 230 4.3 7.8 0.00 0.06 0.00 56 1005.2
20260505114539 68 277 4.3 7.8 0.00 0.06 0.00 56 1005.3
20260505114437 68 250 4.3 7.8 0.00 0.06 0.00 55 1005.2
20260505114333 68 267 4.3 7.0 0.00 0.06 0.00 55 1005.2
20260505114232 68 243 4.3 7.0 0.00 0.06 0.00 56 1005.2
20260505114132 68 276 4.3 7.8 0.00 0.06 0.00 56 1005.2
20260505114101 68 272 4.3 7.8 0.00 0.06 0.00 56 1005.2
20260505114031 68 229 4.3 7.8 0.00 0.06 0.00 56 1005.2
20260505113931 68 247 4.3 7.8 0.00 0.06 0.00 56 1005.2
20260505113830 68 262 4.3 7.8 0.00 0.06 0.00 56 1005.2
20260505113729 68 270 4.3 7.8 0.00 0.06 0.00 54 1005.1
20260505113629 68 301 4.3 7.8 0.00 0.06 0.00 55 1005.2
20260505113601 68 306 4.3 7.8 0.00 0.06 0.00 55 1005.2
20260505113530 68 267 4.3 7.8 0.00 0.06 0.00 54 1005.2
20260505113430 68 305 4.3 7.8 0.00 0.06 0.00 54 1005.1
20260505113329 68 319 4.3 7.8 0.00 0.06 0.00 53 1005.1
20260505113229 68 262 3.5 7.8 0.00 0.06 0.00 53 1005.1
20260505113129 68 246 3.5 7.8 0.00 0.06 0.00 53 1005.1
20260505113101 68 290 3.5 7.8 0.00 0.06 0.00 53 1005.1
20260505113029 68 263 3.5 7.8 0.00 0.06 0.00 54 1005.1
20260505112929 68 293 3.5 7.8 0.00 0.06 0.00 54 1005.0
20260505112829 68 271 3.5 7.0 0.00 0.06 0.00 54 1005.1
20260505112729 68 261 3.5 7.0 0.00 0.06 0.00 55 1005.1
20260505112628 68 283 2.6 7.0 0.00 0.06 0.00 55 1005.1
20260505112601 68 266 2.6 7.0 0.00 0.06 0.00 56 1005.1
20260505112527 68 279 2.6 6.1 0.00 0.06 0.00 55 1005.1
20260505112427 69 298 2.6 6.1 0.00 0.06 0.00 55 1005.1
20260505112327 69 333 2.6 6.1 0.00 0.06 0.00 54 1005.1
20260505112227 69 298 2.6 6.1 0.00 0.06 0.00 55 1005.1
20260505112122 69 292 2.6 7.8 0.00 0.06 0.00 55 1005.1
20260505112102 69 304 2.6 7.8 0.00 0.06 0.00 55 1005.1
20260505112022 69 292 2.6 7.8 0.00 0.06 0.00 54 1005.1
20260505111922 69 319 2.6 7.8 0.00 0.06 0.00 54 1005.1
20260505111822 69 319 2.6 7.8 0.00 0.06 0.00 55 1005.1
20260505111720 69 305 2.6 7.8 0.00 0.06 0.00 55 1005.1
20260505111613 69 309 3.5 7.8 0.00 0.06 0.00 55 1005.1
20260505111601 69 309 3.5 7.8 0.00 0.06 0.00 54 1005.1
20260505111513 69 314 3.5 7.8 0.00 0.06 0.00 55 1005.1
20260505111414 69 333 3.5 7.8 0.00 0.06 0.00 55 1005.1
20260505111314 69 342 3.5 7.8 0.00 0.06 0.00 56 1005.1
20260505111213 69 348 3.5 7.8 0.00 0.06 0.00 56 1005.1
20260505111113 69 305 3.5 7.0 0.00 0.06 0.00 57 1005.1
20260505111101 69 308 3.5 7.0 0.00 0.06 0.00 57 1005.1
20260505111014 69 303 3.5 7.0 0.00 0.06 0.00 57 1005.1
20260505110914 69 263 3.5 7.0 0.00 0.06 0.00 57 1005.1
20260505110814 69 264 3.5 7.0 0.00 0.06 0.00 58 1005.1
20260505110714 69 272 3.5 7.0 0.00 0.06 0.00 57 1005.1
20260505110613 69 265 3.5 7.0 0.00 0.06 0.00 57 1005.1
20260505110601 69 278 3.5 7.0 0.00 0.06 0.00 57 1005.1
20260505110513 69 264 3.5 7.0 0.00 0.06 0.00 57 1005.0
20260505110410 69 263 3.5 7.0 0.00 0.06 0.00 60 1005.0
20260505110310 69 260 3.5 7.0 0.00 0.06 0.00 60 1005.1
20260505110210 69 304 3.5 7.0 0.00 0.06 0.00 60 1005.1
20260505110110 69 312 3.5 7.0 0.00 0.06 0.00 60 1005.1
20260505102201 66 148 0.9 2.6 0.00 0.06 0.00 61 1005.3
20260505102101 66 148 0.9 2.6 0.00 0.06 0.00 62 1005.3
20260505102001 66 148 0.9 2.6 0.00 0.06 0.00 58 1005.3
20260505101901 66 148 0.9 4.3 0.00 0.06 0.00 57 1005.2
20260505101825 66 148 0.9 4.3 0.00 0.06 0.00 58 1005.3
20260505101816 66 148 0.9 4.3 0.00 0.06 0.00 56 1005.2
20260505101812 66 148 0.9 4.3 0.00 0.06 0.00 59 1005.2
20260505101500 66 148 0.9 4.3 0.00 0.06 0.00 56 1005.3
20260505101400 66 148 0.9 4.3 0.00 0.06 0.00 56 1005.3
20260505101300 66 148 1.7 4.3 0.00 0.06 0.00 57 1005.3
20260505101200 66 139 1.7 4.3 0.00 0.06 0.00 56 1005.2
20260505101101 66 142 1.7 4.3 0.00 0.06 0.00 57 1005.2
20260505101001 66 143 1.7 4.3 0.00 0.06 0.00 57 1005.2
20260505100902 66 144 1.7 3.5 0.00 0.06 0.00 57 1005.2
20260505100801 66 144 1.7 3.5 0.00 0.06 0.00 57 1005.2
20260505100659 66 144 1.7 3.5 0.00 0.06 0.00 57 1005.2
20260505100603 66 146 1.7 3.5 0.00 0.06 0.00 56 1005.3
20260505100559 66 146 1.7 3.5 0.00 0.06 0.00 56 1005.3
20260505100500 66 147 1.7 3.5 0.00 0.06 0.00 56 1005.3
20260505100400 66 148 1.7 3.5 0.00 0.06 0.00 58 1005.3
20260505100300 66 192 1.7 3.5 0.00 0.06 0.00 61 1005.3
20260505100200 66 192 1.7 3.5 0.00 0.06 0.00 59 1005.4
20260505100059 66 198 2.6 5.2 0.00 0.06 0.00 59 1005.4
20260505095959 66 198 2.6 5.2 0.00 0.06 0.00 58 1005.4
20260505095900 66 200 2.6 5.2 0.00 0.06 0.00 58 1005.4
20260505095800 66 172 2.6 5.2 0.00 0.06 0.00 61 1005.4
20260505095700 66 196 2.6 5.2 0.00 0.06 0.00 60 1005.5
20260505095604 66 147 2.6 5.2 0.00 0.06 0.00 62 1005.5
20260505095600 66 147 2.6 5.2 0.00 0.06 0.00 62 1005.5
20260505095459 66 182 2.6 5.2 0.00 0.06 0.00 61 1005.5
20260505095359 66 182 2.6 5.2 0.00 0.06 0.00 62 1005.5
20260505095259 66 209 2.6 5.2 0.00 0.06 0.00 63 1005.4
20260505095203 66 200 2.6 5.2 0.00 0.06 0.00 63 1005.5
20260505095104 66 194 1.7 5.2 0.00 0.06 0.00 62 1005.5
20260505095100 66 194 1.7 5.2 0.00 0.06 0.00 62 1005.5
20260505095000 66 198 1.7 5.2 0.00 0.06 0.00 61 1005.5
20260505094900 66 194 1.7 5.2 0.00 0.06 0.00 63 1005.5
20260505094755 66 192 1.7 5.2 0.00 0.06 0.00 63 1005.5
20260505094656 65 122 1.7 5.2 0.00 0.06 0.00 64 1005.5
20260505094601 65 122 1.7 5.2 0.00 0.06 0.00 63 1005.5
20260505094555 65 122 1.7 5.2 0.00 0.06 0.00 63 1005.5
20260505094455 65 121 1.7 5.2 0.00 0.06 0.00 65 1005.5
20260505094355 65 118 1.7 5.2 0.00 0.06 0.00 61 1005.5
20260505094255 65 139 0.9 5.2 0.00 0.06 0.00 62 1005.5
20260505094200 65 120 0.9 3.5 0.00 0.06 0.00 63 1005.5
20260505094103 65 192 0.9 3.5 0.00 0.06 0.00 62 1005.5
20260505094056 65 192 0.9 3.5 0.00 0.06 0.00 62 1005.5
20260505093956 65 192 0.9 3.5 0.00 0.06 0.00 61 1005.5
20260505093856 65 142 0.9 3.5 0.00 0.06 0.00 64 1005.5
20260505093755 65 142 0.9 3.5 0.00 0.06 0.00 66 1005.5
20260505093658 65 141 0.9 3.5 0.00 0.06 0.00 65 1005.5
20260505093601 64 144 0.9 3.5 0.00 0.06 0.00 65 1005.5
20260505093553 64 144 0.9 3.5 0.00 0.06 0.00 65 1005.5
20260505093452 64 176 0.9 5.2 0.00 0.06 0.00 66 1005.5
20260505093352 64 196 1.7 5.2 0.00 0.06 0.00 67 1005.5
20260505093252 64 196 1.7 5.2 0.00 0.06 0.00 64 1005.5
20260505093153 64 196 1.7 5.2 0.00 0.06 0.00 65 1005.5
20260505093102 64 196 1.7 5.2 0.00 0.06 0.00 65 1005.5
20260505093047 64 173 0.9 5.2 0.00 0.06 0.00 65 1005.5
20260505092947 64 173 1.7 5.2 0.00 0.06 0.00 67 1005.5
20260505092845 64 173 1.7 5.2 0.00 0.06 0.00 68 1005.5
20260505092744 64 173 1.7 5.2 0.00 0.06 0.00 67 1005.6
20260505092644 64 173 1.7 5.2 0.00 0.06 0.00 65 1005.6
20260505092601 64 173 1.7 5.2 0.00 0.06 0.00 65 1005.6
20260505092541 64 173 1.7 5.2 0.00 0.06 0.00 65 1005.6
20260505092437 64 127 1.7 4.3 0.00 0.06 0.00 66 1005.6
20260505092337 64 121 0.9 4.3 0.00 0.06 0.00 66 1005.7
20260505092237 64 135 0.9 2.6 0.00 0.06 0.00 67 1005.7
20260505092138 63 118 0.9 2.6 0.00 0.06 0.00 69 1005.7
20260505092101 63 151 0.9 2.6 0.00 0.06 0.00 69 1005.7
20260505092038 63 151 0.9 2.6 0.00 0.06 0.00 68 1005.7
20260505091938 63 151 0.9 2.6 0.00 0.06 0.00 68 1005.8
20260505091837 63 151 0.9 2.6 0.00 0.06 0.00 68 1005.8
20260505091735 63 151 0.9 2.6 0.00 0.06 0.00 66 1005.8
20260505091635 63 151 0.9 2.6 0.00 0.06 0.00 69 1005.8
20260505091600 63 151 0.9 2.6 0.00 0.06 0.00 69 1005.8
20260505091535 63 151 0.9 2.6 0.00 0.06 0.00 68 1005.8
20260505091436 63 151 0.9 2.6 0.00 0.06 0.00 67 1005.8
20260505091333 63 168 0.9 1.7 0.00 0.06 0.00 69 1005.8
20260505091233 63 168 0.9 1.7 0.00 0.06 0.00 69 1005.9
20260505091134 63 169 0.9 1.7 0.00 0.06 0.00 68 1005.8
20260505091100 63 169 0.9 1.7 0.00 0.06 0.00 68 1005.8
20260505091029 63 169 0.9 1.7 0.00 0.06 0.00 68 1005.8
20260505090929 63 169 0.9 1.7 0.00 0.06 0.00 69 1005.8
20260505090829 63 169 0.9 1.7 0.00 0.06 0.00 69 1005.8
20260505090729 63 169 0.9 1.7 0.00 0.06 0.00 68 1005.8
20260505090629 63 169 0.9 1.7 0.00 0.06 0.00 68 1005.9
20260505090601 63 169 0.9 1.7 0.00 0.06 0.00 69 1005.9
20260505090529 63 169 0.9 1.7 0.00 0.06 0.00 70 1005.9
20260505090430 63 169 0.9 3.5 0.00 0.06 0.00 69 1005.9
20260505090335 63 169 0.9 3.5 0.00 0.06 0.00 70 1005.9
20260505090229 62 169 0.9 3.5 0.00 0.06 0.00 70 1005.9
20260505090128 63 169 0.9 3.5 0.00 0.06 0.00 69 1006.0
20260505090101 62 169 0.9 3.5 0.00 0.06 0.00 69 1006.0
20260505090029 62 169 0.9 3.5 0.00 0.06 0.00 69 1006.0
20260505085930 62 169 0.9 3.5 0.00 0.06 0.00 70 1005.9
20260505085829 63 169 0.9 3.5 0.00 0.06 0.00 70 1006.0
20260505085729 62 169 0.9 3.5 0.00 0.06 0.00 69 1006.0
20260505085629 62 169 0.9 3.5 0.00 0.06 0.00 72 1006.0
20260505085601 62 169 0.9 3.5 0.00 0.06 0.00 71 1006.0
20260505085529 62 169 0.9 3.5 0.00 0.06 0.00 71 1006.0
20260505085429 62 128 0.9 2.6 0.00 0.06 0.00 71 1006.0
20260505085328 62 104 0.9 3.5 0.00 0.06 0.00 73 1006.0
20260505085228 62 101 0.9 3.5 0.00 0.06 0.00 73 1006.0
20260505085128 62 101 0.9 3.5 0.00 0.06 0.00 73 1006.0
20260505085101 62 101 0.9 3.5 0.00 0.06 0.00 74 1006.0
20260505085029 62 101 0.9 3.5 0.00 0.06 0.00 74 1006.0
20260505084929 62 96 0.9 3.5 0.00 0.06 0.00 74 1006.0
20260505084829 62 95 0.9 3.5 0.00 0.06 0.00 72 1006.0
20260505084729 62 86 0.9 3.5 0.00 0.06 0.00 74 1006.0
20260505084628 62 86 0.9 3.5 0.00 0.06 0.00 74 1006.0
20260505084601 62 85 0.9 3.5 0.00 0.06 0.00 74 1006.0
20260505084528 61 73 0.9 3.5 0.00 0.06 0.00 74 1006.0
20260505084428 61 72 0.9 3.5 0.00 0.06 0.00 75 1006.0
20260505084329 61 126 0.9 3.5 0.00 0.06 0.00 75 1006.1
20260505084229 61 126 0.9 3.5 0.00 0.06 0.00 74 1006.1
20260505084134 61 126 0.9 3.5 0.00 0.06 0.00 76 1006.1
20260505084101 61 126 0.9 3.5 0.00 0.06 0.00 76 1006.1
20260505084027 61 126 0.9 5.2 0.00 0.06 0.00 76 1006.2
20260505083927 61 126 1.7 5.2 0.00 0.06 0.00 74 1006.2
20260505083825 61 126 1.7 5.2 0.00 0.06 0.00 73 1006.2
20260505083723 61 126 1.7 5.2 0.00 0.06 0.00 74 1006.2
20260505083623 61 128 0.9 5.2 0.00 0.06 0.00 74 1006.2
20260505083601 61 127 0.9 5.2 0.00 0.06 0.00 74 1006.2
20260505083521 61 126 0.9 5.2 0.00 0.06 0.00 76 1006.2
20260505083419 61 126 0.9 5.2 0.00 0.06 0.00 76 1006.2
20260505083331 61 126 1.7 5.2 0.00 0.06 0.00 76 1006.2
20260505083325 61 126 0.9 5.2 0.00 0.06 0.00 75 1006.3
20260505083321 61 126 1.7 5.2 0.00 0.06 0.00 75 1006.3
20260505083313 61 127 1.7 5.2 0.00 0.06 0.00 76 1006.2
20260505083011 61 126 0.9 4.3 0.00 0.06 0.00 77 1006.2
20260505082911 60 103 0.9 3.5 0.00 0.06 0.00 77 1006.2
20260505082826 60 102 0.9 3.5 0.00 0.06 0.00 76 1006.2
20260505082822 60 93 0.9 3.5 0.00 0.06 0.00 78 1006.2
20260505082813 60 114 1.7 3.5 0.00 0.06 0.00 77 1006.2
20260505082507 60 114 1.7 3.5 0.00 0.06 0.00 78 1006.2
20260505082407 60 115 1.7 3.5 0.00 0.06 0.00 77 1006.2
20260505082307 60 115 1.7 3.5 0.00 0.06 0.00 77 1006.2
20260505082207 60 122 1.7 3.5 0.00 0.06 0.00 77 1006.3
20260505082108 59 123 1.7 3.5 0.00 0.06 0.00 77 1006.2
20260505082100 59 123 1.7 3.5 0.00 0.06 0.00 78 1006.2
20260505082007 59 122 1.7 3.5 0.00 0.06 0.00 78 1006.2
20260505081907 59 122 1.7 3.5 0.00 0.06 0.00 78 1006.2
20260505081805 59 121 1.7 3.5 0.00 0.06 0.00 78 1006.2
20260505081705 59 81 0.9 2.6 0.00 0.06 0.00 78 1006.2
20260505081605 59 46 0.9 2.6 0.00 0.06 0.00 79 1006.2
20260505081601 59 37 0.9 2.6 0.00 0.06 0.00 78 1006.2
20260505081505 59 336 0.9 2.6 0.00 0.06 0.00 79 1006.2
20260505081406 59 337 0.9 2.6 0.00 0.06 0.00 79 1006.3
20260505081325 58 337 0.9 2.6 0.00 0.06 0.00 79 1006.2
20260505081321 58 337 0.9 2.6 0.00 0.06 0.00 79 1006.3
20260505081312 58 338 0.9 2.6 0.00 0.06 0.00 80 1006.3
20260505081002 58 338 0.9 2.6 0.00 0.06 0.00 80 1006.3
20260505080901 58 338 0.9 2.6 0.00 0.06 0.00 80 1006.3
20260505080826 58 340 0.9 2.6 0.00 0.06 0.00 79 1006.3
20260505080822 58 340 0.9 2.6 0.00 0.06 0.00 79 1006.3
20260505080813 58 340 0.9 2.6 0.00 0.06 0.00 80 1006.3
20260505080501 58 337 0.9 2.6 0.00 0.06 0.00 80 1006.3
20260505080401 58 337 0.9 2.6 0.00 0.06 0.00 80 1006.4
20260505080301 58 337 0.9 2.6 0.00 0.06 0.00 80 1006.3
20260505080201 58 336 0.9 2.6 0.00 0.06 0.00 80 1006.4
20260505080001 58 336 0.9 2.6 0.00 0.06 0.00 81 1006.4
20260505075901 57 336 0.9 2.6 0.00 0.06 0.00 80 1006.4
20260505075824 57 336 0.9 2.6 0.00 0.06 0.00 81 1006.4
20260505075820 57 340 0.9 1.7 0.00 0.06 0.00 81 1006.4
20260505075811 57 340 0.9 1.7 0.00 0.06 0.00 81 1006.4
20260505075500 57 340 0.0 1.7 0.00 0.06 0.00 80 1006.4
20260505075400 57 340 0.0 1.7 0.00 0.06 0.00 79 1006.4
20260505075325 57 340 0.0 1.7 0.00 0.06 0.00 80 1006.4
20260505075320 57 340 0.9 2.6 0.00 0.06 0.00 81 1006.4
20260505075312 57 340 0.9 2.6 0.00 0.06 0.00 82 1006.3
20260505075000 57 339 0.0 2.6 0.00 0.06 0.00 84 1006.3
20260505074900 57 339 0.9 2.6 0.00 0.06 0.00 83 1006.3
20260505074800 57 339 0.9 2.6 0.00 0.06 0.00 83 1006.3
20260505074700 57 339 0.9 2.6 0.00 0.06 0.00 83 1006.3
20260505074601 57 339 0.9 2.6 0.00 0.06 0.00 83 1006.3
20260505074501 57 338 0.9 2.6 0.00 0.06 0.00 83 1006.3
20260505074401 57 338 0.9 2.6 0.00 0.06 0.00 83 1006.4
20260505074301 56 338 0.9 2.6 0.00 0.06 0.00 84 1006.4
20260505074201 56 338 0.9 2.6 0.00 0.06 0.00 84 1006.4
20260505074101 56 338 0.9 2.6 0.00 0.06 0.00 84 1006.4
20260505074001 56 338 0.9 2.6 0.00 0.06 0.00 84 1006.5
20260505073901 56 338 0.9 2.6 0.00 0.06 0.00 84 1006.5
20260505073825 56 338 0.9 2.6 0.00 0.06 0.00 84 1006.4
20260505073821 56 338 0.9 2.6 0.00 0.06 0.00 84 1006.4
20260505073813 56 338 0.9 3.5 0.00 0.06 0.00 84 1006.4
20260505073501 56 338 1.7 3.5 0.00 0.06 0.00 84 1006.5
20260505073401 56 338 0.9 3.5 0.00 0.06 0.00 85 1006.4
20260505073301 56 338 0.9 3.5 0.00 0.06 0.00 86 1006.5
20260505073201 56 338 0.9 3.5 0.00 0.06 0.00 85 1006.5
20260505073106 56 338 0.9 3.5 0.00 0.06 0.00 85 1006.5
20260505073000 56 338 0.9 3.5 0.00 0.06 0.00 85 1006.5
20260505072900 55 338 1.7 3.5 0.00 0.06 0.00 86 1006.5
20260505072801 55 338 1.7 3.5 0.00 0.06 0.00 86 1006.5
20260505072701 55 338 1.7 3.5 0.00 0.06 0.00 86 1006.7
20260505072604 55 338 1.7 3.5 0.00 0.06 0.00 86 1006.7
20260505072501 55 55 0.9 2.6 0.00 0.06 0.00 86 1006.7
20260505072401 55 202 0.9 2.6 0.00 0.06 0.00 86 1006.7
20260505072320 55 203 0.9 2.6 0.00 0.06 0.00 86 1006.7
20260505072316 55 204 1.7 2.6 0.00 0.06 0.00 86 1006.8
20260505072312 55 204 1.7 2.6 0.00 0.06 0.00 86 1006.8
20260505072000 55 204 1.7 2.6 0.00 0.06 0.00 86 1006.8
20260505071900 54 204 1.7 2.6 0.00 0.06 0.00 86 1006.8
20260505071800 54 204 0.9 2.6 0.00 0.06 0.00 86 1006.9
20260505071701 54 198 0.9 2.6 0.00 0.06 0.00 86 1006.9
20260505071601 54 198 0.9 2.6 0.00 0.06 0.00 87 1006.9
20260505071500 54 198 0.9 2.6 0.00 0.06 0.00 87 1006.9
20260505071400 54 198 0.9 2.6 0.00 0.06 0.00 87 1006.9
20260505071320 54 198 0.9 2.6 0.00 0.06 0.00 88 1007.0
20260505071316 54 198 0.9 2.6 0.00 0.06 0.00 89 1007.0
20260505071312 54 198 0.9 2.6 0.00 0.06 0.00 90 1007.0
20260505071001 53 198 0.9 2.6 0.00 0.06 0.00 90 1007.0
20260505070901 53 198 0.9 2.6 0.00 0.06 0.00 90 1007.0
20260505070801 53 198 0.9 2.6 0.00 0.06 0.00 90 1007.1
20260505070701 53 198 0.9 2.6 0.00 0.06 0.00 90 1007.1
20260505070601 53 198 0.9 2.6 0.00 0.06 0.00 90 1007.1
20260505070501 53 198 0.9 2.6 0.00 0.06 0.00 90 1007.1
20260505070401 53 199 0.9 2.6 0.00 0.06 0.00 90 1007.1
20260505070301 53 198 0.9 4.3 0.00 0.06 0.00 90 1007.1
20260505070201 53 199 0.9 4.3 0.00 0.06 0.00 90 1007.1
20260505070001 53 200 0.9 4.3 0.00 0.06 0.00 90 1007.1
20260505065901 53 200 0.9 4.3 0.00 0.06 0.00 90 1007.1
20260505065801 53 200 1.7 4.3 0.00 0.06 0.00 90 1007.1
20260505065701 53 201 1.7 4.3 0.00 0.06 0.00 90 1007.1
20260505065601 52 201 1.7 4.3 0.00 0.06 0.00 90 1007.1
20260505065500 52 201 1.7 4.3 0.00 0.06 0.00 90 1007.1
20260505065401 52 204 1.7 4.3 0.00 0.06 0.00 90 1007.1
20260505065303 52 134 1.7 3.5 0.00 0.06 0.00 90 1007.2
20260505065201 52 134 1.7 3.5 0.00 0.06 0.00 91 1007.2
20260505065101 52 134 0.9 3.5 0.00 0.06 0.00 91 1007.2
20260505065001 52 126 0.9 3.5 0.00 0.06 0.00 91 1007.2
20260505064901 52 126 0.9 3.5 0.00 0.06 0.00 91 1007.2
20260505064821 52 125 0.9 3.5 0.00 0.06 0.00 91 1007.2
20260505064817 52 125 0.9 3.5 0.00 0.06 0.00 91 1007.2
20260505064813 51 125 0.9 3.5 0.00 0.06 0.00 91 1007.2
20260505064501 51 124 0.0 3.5 0.00 0.06 0.00 91 1007.2
20260505064401 51 124 0.0 3.5 0.00 0.06 0.00 91 1007.2
20260505064320 51 123 0.0 3.5 0.00 0.06 0.00 91 1007.2
20260505064316 51 123 0.0 0.9 0.00 0.06 0.00 91 1007.2
20260505064312 51 123 0.0 0.9 0.00 0.06 0.00 91 1007.2
20260505064001 51 123 0.0 0.9 0.00 0.06 0.00 91 1007.2
20260505063901 51 123 0.0 0.9 0.00 0.06 0.00 91 1007.2
20260505063801 51 123 0.0 0.9 0.00 0.06 0.00 92 1007.2
20260505063701 51 123 0.0 0.9 0.00 0.06 0.00 92 1007.2
20260505063600 51 123 0.0 0.9 0.00 0.06 0.00 92 1007.2
20260505063458 51 123 0.0 0.9 0.00 0.06 0.00 92 1007.3
20260505063359 51 123 0.0 0.9 0.00 0.06 0.00 92 1007.3
20260505063257 51 123 0.0 0.9 0.00 0.06 0.00 92 1007.3
20260505063157 51 123 0.0 0.9 0.00 0.06 0.00 92 1007.3
20260505063101 51 123 0.0 0.9 0.00 0.06 0.00 92 1007.3
20260505063055 51 123 0.0 0.9 0.00 0.06 0.00 92 1007.3
20260505062952 51 123 0.0 0.9 0.00 0.06 0.00 92 1007.3
20260505062847 51 123 0.0 0.9 0.00 0.06 0.00 92 1007.3
20260505062747 51 123 0.0 1.7 0.00 0.06 0.00 92 1007.3
20260505062647 51 123 0.0 1.7 0.00 0.06 0.00 92 1007.3
20260505062601 51 123 0.0 1.7 0.00 0.06 0.00 92 1007.3
20260505062547 51 123 0.0 1.7 0.00 0.06 0.00 92 1007.3
20260505062447 51 123 0.0 1.7 0.00 0.06 0.00 92 1007.3
20260505062346 51 123 0.0 1.7 0.00 0.06 0.00 92 1007.3
20260505062245 51 123 0.0 1.7 0.00 0.06 0.00 92 1007.4
20260505062145 51 123 0.0 1.7 0.00 0.06 0.00 92 1007.4
20260505062100 50 123 0.0 1.7 0.00 0.06 0.00 92 1007.4
20260505062043 50 123 0.9 1.7 0.00 0.06 0.00 92 1007.4
20260505061940 51 123 0.9 1.7 0.00 0.06 0.00 92 1007.3
20260505061835 50 123 0.0 1.7 0.00 0.06 0.00 92 1007.3
20260505061815 50 123 0.0 1.7 0.00 0.06 0.00 92 1007.3
20260505061811 50 123 0.0 1.7 0.00 0.06 0.00 92 1007.4
20260505061532 50 123 0.0 1.7 0.00 0.06 0.00 92 1007.3
20260505061431 50 125 0.0 1.7 0.00 0.06 0.00 92 1007.3
20260505061329 50 125 0.0 1.7 0.00 0.06 0.00 92 1007.3
20260505061321 50 125 0.0 0.9 0.00 0.06 0.00 93 1007.2
20260505061316 50 125 0.0 1.7 0.00 0.06 0.00 92 1007.3
20260505061312 50 125 0.0 1.7 0.00 0.06 0.00 92 1007.2
20260505061029 50 125 0.0 0.9 0.00 0.06 0.00 93 1007.3
20260505060929 50 125 0.0 1.7 0.00 0.06 0.00 93 1007.3
20260505060828 50 125 0.0 1.7 0.00 0.06 0.00 93 1007.3
20260505060729 50 125 0.0 1.7 0.00 0.06 0.00 93 1007.3
20260505060601 50 125 0.0 1.7 0.00 0.06 0.00 93 1007.3
20260505060529 50 125 0.0 1.7 0.00 0.06 0.00 93 1007.3
20260505060429 50 125 0.0 1.7 0.00 0.06 0.00 93 1007.3
20260505060329 50 125 0.0 1.7 0.00 0.06 0.00 93 1007.3
20260505060229 49 125 0.0 1.7 0.00 0.06 0.00 93 1007.3
20260505060129 49 125 0.0 1.7 0.00 0.06 0.00 94 1007.3
20260505060029 49 125 0.0 1.7 0.00 0.06 0.00 94 1007.3
20260505055929 49 125 0.0 1.7 0.00 0.06 0.00 94 1007.3
20260505055829 49 125 0.0 1.7 0.00 0.06 0.00 94 1007.3
20260505055729 49 125 0.0 1.7 0.00 0.06 0.00 94 1007.3
20260505055629 49 125 0.0 1.7 0.00 0.06 0.00 94 1007.3
20260505055529 49 125 0.0 1.7 0.00 0.06 0.00 94 1007.3
20260505055429 49 125 0.0 1.7 0.00 0.06 0.00 94 1007.3
20260505055328 49 125 0.0 1.7 0.00 0.06 0.00 94 1007.3
20260505055228 49 126 0.0 1.7 0.00 0.06 0.00 94 1007.3
20260505055128 49 126 0.0 1.7 0.00 0.06 0.00 94 1007.3
20260505055028 49 126 0.0 1.7 0.00 0.06 0.00 94 1007.2
20260505054929 49 126 0.0 1.7 0.00 0.06 0.00 94 1007.2
20260505054829 49 126 0.0 1.7 0.00 0.06 0.00 94 1007.3
20260505054729 49 126 0.9 1.7 0.00 0.06 0.00 94 1007.2
20260505054629 48 126 0.9 2.6 0.00 0.06 0.00 94 1007.3
20260505054528 48 126 0.9 2.6 0.00 0.06 0.00 94 1007.3
20260505054429 48 126 0.9 2.6 0.00 0.06 0.00 94 1007.3
20260505054329 48 126 0.9 2.6 0.00 0.06 0.00 94 1007.3
20260505054305 48 126 0.9 2.6 0.00 0.06 0.00 94 1007.2
20260505054255 48 126 0.9 2.6 0.00 0.06 0.00 94 1007.3
20260505054251 48 126 0.9 2.6 0.00 0.06 0.00 94 1007.2
20260505054029 48 126 0.9 2.6 0.00 0.06 0.00 94 1007.2
20260505053929 48 126 0.9 2.6 0.00 0.06 0.00 94 1007.2
20260505053829 48 126 0.9 2.6 0.00 0.06 0.00 94 1007.2
20260505053729 48 126 0.9 2.6 0.00 0.06 0.00 94 1007.2
20260505053629 48 126 0.9 2.6 0.00 0.06 0.00 94 1007.1
20260505053529 48 101 0.9 2.6 0.00 0.06 0.00 94 1007.1
20260505053500 47 99 0.0 1.7 0.00 0.06 0.00 94 1007.1
20260505053327 47 99 0.0 1.7 0.00 0.06 0.00 94 1007.1
20260505053226 47 99 0.0 1.7 0.00 0.06 0.00 94 1007.1
20260505053124 47 99 0.9 1.7 0.00 0.06 0.00 95 1007.1
20260505053023 47 99 0.9 2.6 0.00 0.06 0.00 94 1007.1
20260505052920 47 99 0.9 3.5 0.00 0.06 0.00 94 1007.1
20260505052821 47 99 0.9 3.5 0.00 0.06 0.00 95 1007.1
20260505052721 47 99 0.9 3.5 0.00 0.06 0.00 95 1007.1
20260505052619 47 98 0.9 3.5 0.00 0.06 0.00 95 1007.1
20260505052517 47 98 0.9 3.5 0.00 0.06 0.00 95 1007.1
20260505052411 47 98 0.9 3.5 0.00 0.06 0.00 95 1007.1
20260505052311 47 98 0.9 3.5 0.00 0.06 0.00 94 1007.1
20260505052211 47 98 0.9 3.5 0.00 0.06 0.00 94 1007.2
20260505052110 47 99 0.9 3.5 0.00 0.06 0.00 94 1007.2
20260505052037 47 99 0.0 3.5 0.00 0.06 0.00 94 1007.1
20260505052010 47 98 0.0 3.5 0.00 0.06 0.00 94 1007.1
20260505051907 46 78 0.0 1.7 0.00 0.06 0.00 94 1007.1
20260505051807 46 77 0.0 1.7 0.00 0.06 0.00 94 1007.1
20260505051803 46 77 0.0 1.7 0.00 0.06 0.00 94 1007.1
20260505051752 46 77 0.0 1.7 0.00 0.06 0.00 95 1007.1
20260505051748 46 77 0.0 1.7 0.00 0.06 0.00 94 1007.1
20260505051507 46 77 0.0 1.7 0.00 0.06 0.00 94 1007.1
20260505051400 46 77 0.0 1.7 0.00 0.06 0.00 94 1007.1
20260505051301 46 77 0.0 1.7 0.00 0.06 0.00 94 1007.1
20260505051201 46 77 0.0 1.7 0.00 0.06 0.00 94 1007.1
20260505051101 46 77 0.0 1.7 0.00 0.06 0.00 94 1007.1
20260505051036 46 77 0.9 1.7 0.00 0.06 0.00 94 1007.1
20260505051005 46 77 0.9 1.7 0.00 0.06 0.00 94 1007.1
20260505050901 46 77 0.9 1.7 0.00 0.06 0.00 94 1007.1
20260505050801 46 77 0.9 1.7 0.00 0.06 0.00 94 1007.2
20260505050755 46 77 0.0 1.7 0.00 0.06 0.00 94 1007.2
20260505050750 46 77 0.9 1.7 0.00 0.06 0.00 94 1007.2
20260505050746 46 77 0.0 1.7 0.00 0.06 0.00 94 1007.2
20260505050501 45 77 0.0 1.7 0.00 0.06 0.00 94 1007.2
20260505050401 45 77 0.0 1.7 0.00 0.06 0.00 94 1007.2
20260505050302 45 77 0.0 1.7 0.00 0.06 0.00 94 1007.2
20260505050258 45 67 0.0 1.7 0.00 0.06 0.00 93 1007.3
20260505050249 45 73 0.0 1.7 0.00 0.06 0.00 94 1007.2
20260505050245 45 71 0.0 1.7 0.00 0.06 0.00 93 1007.3
20260505041701 44 20 0.0 0.0 0.00 0.06 0.00 92 1007.4
20260505041601 44 20 0.0 0.0 0.00 0.06 0.00 92 1007.4
20260505041500 44 20 0.0 0.0 0.00 0.06 0.00 92 1007.4
20260505041400 44 20 0.0 0.0 0.00 0.06 0.00 92 1007.4
20260505041301 44 20 0.0 0.0 0.00 0.06 0.00 92 1007.4
20260505041202 44 20 0.0 0.0 0.00 0.06 0.00 92 1007.4
20260505041102 44 20 0.0 0.9 0.00 0.06 0.00 92 1007.4
20260505041000 44 20 0.0 0.9 0.00 0.06 0.00 92 1007.4
20260505040900 44 20 0.0 0.9 0.00 0.06 0.00 92 1007.5
20260505040758 44 20 0.0 0.9 0.00 0.06 0.00 92 1007.5
20260505040656 44 20 0.0 0.9 0.00 0.06 0.00 92 1007.5
20260505040528 44 20 0.0 0.9 0.00 0.06 0.00 92 1007.5
20260505040451 44 20 0.0 0.9 0.00 0.06 0.00 92 1007.6
20260505040351 44 20 0.0 0.9 0.00 0.06 0.00 92 1007.5
20260505040251 44 20 0.0 0.9 0.00 0.06 0.00 91 1007.5
20260505040150 44 20 0.0 0.9 0.00 0.06 0.00 91 1007.5
20260505040029 44 20 0.0 0.9 0.00 0.06 0.00 91 1007.5
20260505035951 44 20 0.0 0.9 0.00 0.06 0.00 91 1007.5
20260505035851 44 20 0.0 0.9 0.00 0.06 0.00 91 1007.5
20260505035749 44 20 0.0 0.9 0.00 0.06 0.00 91 1007.5
20260505035649 44 20 0.0 0.9 0.00 0.06 0.00 91 1007.5
20260505035529 44 20 0.0 0.9 0.00 0.06 0.00 91 1007.5
20260505035448 44 20 0.0 0.9 0.00 0.06 0.00 91 1007.5
20260505035346 44 20 0.0 0.9 0.00 0.06 0.00 91 1007.4
20260505035246 44 20 0.0 0.9 0.00 0.06 0.00 91 1007.4
20260505035144 44 20 0.0 0.9 0.00 0.06 0.00 91 1007.5
20260505035029 44 20 0.0 0.9 0.00 0.06 0.00 91 1007.4
20260505034945 44 20 0.0 0.9 0.00 0.06 0.00 91 1007.5
20260505034845 44 20 0.0 0.9 0.00 0.06 0.00 91 1007.5
20260505034745 44 20 0.0 0.9 0.00 0.06 0.00 90 1007.5
20260505034645 44 20 0.0 0.9 0.00 0.06 0.00 90 1007.5
20260505034528 44 20 0.0 0.9 0.00 0.06 0.00 90 1007.5
20260505034444 44 20 0.0 0.9 0.00 0.06 0.00 90 1007.5
20260505034344 44 20 0.0 0.9 0.00 0.06 0.00 90 1007.5
20260505034244 44 20 0.0 0.9 0.00 0.06 0.00 90 1007.5
20260505034145 44 20 0.0 0.9 0.00 0.06 0.00 90 1007.5
20260505034031 44 20 0.0 0.9 0.00 0.06 0.00 90 1007.5
20260505033944 44 20 0.0 0.9 0.00 0.06 0.00 90 1007.5
20260505033843 44 20 0.0 0.9 0.00 0.06 0.00 90 1007.5
20260505033743 44 20 0.0 0.9 0.00 0.06 0.00 90 1007.5
20260505033642 44 20 0.0 0.9 0.00 0.06 0.00 90 1007.5
20260505033530 44 20 0.0 0.9 0.00 0.06 0.00 90 1007.5
20260505033443 44 20 0.0 0.9 0.00 0.06 0.00 89 1007.5
20260505033342 44 20 0.0 0.9 0.00 0.06 0.00 89 1007.6
20260505033242 45 20 0.0 0.9 0.00 0.06 0.00 89 1007.6
20260505033143 45 20 0.0 0.9 0.00 0.06 0.00 89 1007.6
20260505033028 45 20 0.0 0.9 0.00 0.06 0.00 89 1007.6
20260505032943 45 20 0.0 0.9 0.00 0.06 0.00 89 1007.6
20260505032843 45 20 0.0 0.9 0.00 0.06 0.00 90 1007.6
20260505032742 45 20 0.0 0.9 0.00 0.06 0.00 90 1007.6
20260505032642 45 20 0.0 0.9 0.00 0.06 0.00 90 1007.6
20260505032529 45 20 0.0 0.9 0.00 0.06 0.00 90 1007.6
20260505032439 45 20 0.0 0.9 0.00 0.06 0.00 90 1007.6
20260505032338 45 20 0.0 0.9 0.00 0.06 0.00 90 1007.6
20260505032239 45 20 0.0 0.9 0.00 0.06 0.00 90 1007.6
20260505032139 45 20 0.0 0.9 0.00 0.06 0.00 90 1007.6
20260505032029 45 20 0.0 0.9 0.00 0.06 0.00 90 1007.6
20260505031938 45 20 0.0 0.9 0.00 0.06 0.00 90 1007.6
20260505031838 45 20 0.0 0.9 0.00 0.06 0.00 90 1007.6
20260505031739 45 20 0.0 0.9 0.00 0.06 0.00 90 1007.5
20260505031638 45 20 0.0 0.0 0.00 0.06 0.00 90 1007.6
20260505031529 45 20 0.0 0.0 0.00 0.06 0.00 90 1007.6
20260505031439 45 20 0.0 0.0 0.00 0.06 0.00 90 1007.6
20260505031338 45 20 0.0 0.9 0.00 0.06 0.00 90 1007.6
20260505031238 45 20 0.0 0.9 0.00 0.06 0.00 90 1007.6
20260505031139 45 20 0.0 0.9 0.00 0.06 0.00 90 1007.6
20260505031039 45 20 0.0 0.9 0.00 0.06 0.00 90 1007.6
20260505031029 46 20 0.0 0.9 0.00 0.06 0.00 90 1007.6
20260505030939 46 20 0.0 0.9 0.00 0.06 0.00 90 1007.6
20260505030843 46 20 0.0 0.9 0.00 0.06 0.00 90 1007.6
20260505030739 46 20 0.0 0.9 0.00 0.06 0.00 90 1007.7
20260505030638 46 20 0.0 0.9 0.00 0.06 0.00 90 1007.7
20260505030528 46 20 0.0 0.9 0.00 0.06 0.00 90 1007.7
20260505030434 46 20 0.0 0.9 0.00 0.06 0.00 90 1007.7
20260505030339 46 20 0.0 0.9 0.00 0.06 0.00 90 1007.7
20260505030235 46 20 0.0 0.0 0.00 0.06 0.00 90 1007.7
20260505030135 46 20 0.0 0.0 0.00 0.06 0.00 90 1007.7
20260505030028 46 20 0.0 0.0 0.00 0.06 0.00 90 1007.7
20260505025935 46 20 0.0 0.0 0.00 0.06 0.00 90 1007.7
20260505025835 46 20 0.0 0.9 0.00 0.06 0.00 90 1007.7
20260505025735 46 20 0.0 0.9 0.00 0.06 0.00 90 1007.7
20260505025635 46 20 0.0 0.9 0.00 0.06 0.00 90 1007.7
20260505025529 46 20 0.0 0.9 0.00 0.06 0.00 90 1007.7
20260505025434 46 20 0.0 0.9 0.00 0.06 0.00 90 1007.7
20260505025334 46 20 0.0 0.9 0.00 0.06 0.00 90 1007.7
20260505025248 46 20 0.0 0.9 0.00 0.06 0.00 90 1007.7
20260505025244 46 20 0.0 0.9 0.00 0.06 0.00 90 1007.8
20260505025240 46 20 0.0 0.9 0.00 0.06 0.00 90 1007.8
20260505024935 46 20 0.0 0.9 0.00 0.06 0.00 90 1007.8
20260505024834 46 20 0.0 0.0 0.00 0.06 0.00 90 1007.8
20260505024734 46 20 0.0 0.0 0.00 0.06 0.00 90 1007.8
20260505024629 46 20 0.0 0.9 0.00 0.06 0.00 90 1007.8
20260505024529 46 20 0.0 0.9 0.00 0.06 0.00 90 1007.8
20260505024429 46 20 0.0 0.9 0.00 0.06 0.00 89 1007.9
20260505024330 46 20 0.0 0.9 0.00 0.06 0.00 89 1007.9
20260505024229 46 20 0.0 0.9 0.00 0.06 0.00 89 1007.9
20260505024129 46 20 0.0 0.9 0.00 0.06 0.00 89 1008.0
20260505024031 46 20 0.0 0.9 0.00 0.06 0.00 89 1008.0
20260505023929 46 20 0.0 0.9 0.00 0.06 0.00 89 1008.0
20260505023829 46 20 0.0 0.9 0.00 0.06 0.00 89 1008.0
20260505023728 46 20 0.0 0.9 0.00 0.06 0.00 89 1008.0
20260505023629 46 20 0.0 0.9 0.00 0.06 0.00 88 1008.1
20260505023529 46 20 0.0 0.0 0.00 0.06 0.00 88 1008.0
20260505023429 47 20 0.0 0.0 0.00 0.06 0.00 88 1008.1
20260505023329 47 20 0.0 0.0 0.00 0.06 0.00 88 1008.1
20260505023229 47 20 0.0 0.0 0.00 0.06 0.00 88 1008.1
20260505023129 47 20 0.0 0.0 0.00 0.06 0.00 88 1008.1
20260505023029 47 20 0.0 0.0 0.00 0.06 0.00 88 1008.1
20260505022929 47 20 0.0 0.0 0.00 0.06 0.00 88 1008.2
20260505022829 47 20 0.0 0.0 0.00 0.06 0.00 88 1008.2
20260505022727 47 20 0.0 0.9 0.00 0.06 0.00 88 1008.2
20260505022627 47 20 0.0 0.9 0.00 0.06 0.00 89 1008.2
20260505022527 47 20 0.0 0.9 0.00 0.06 0.00 89 1008.2
20260505022426 47 20 0.0 0.9 0.00 0.06 0.00 89 1008.2
20260505022326 47 20 0.0 0.9 0.00 0.06 0.00 90 1008.2
20260505022227 47 20 0.0 0.9 0.00 0.06 0.00 90 1008.2
20260505022126 47 20 0.0 0.9 0.00 0.06 0.00 91 1008.2
20260505022027 47 20 0.0 1.7 0.00 0.06 0.00 91 1008.2
20260505021927 47 20 0.0 1.7 0.00 0.06 0.00 91 1008.2
20260505021831 48 20 0.0 1.7 0.00 0.06 0.00 91 1008.2
20260505021726 48 20 0.9 1.7 0.00 0.06 0.00 91 1008.3
20260505021626 47 20 0.9 1.7 0.00 0.06 0.00 92 1008.3
20260505021526 48 20 0.9 1.7 0.00 0.06 0.00 92 1008.3
20260505021426 48 20 0.9 1.7 0.00 0.06 0.00 92 1008.4
20260505021327 48 20 0.9 1.7 0.00 0.06 0.00 92 1008.4
20260505021227 48 20 0.9 1.7 0.00 0.06 0.00 92 1008.4
20260505021126 48 20 0.9 1.7 0.00 0.06 0.00 92 1008.4
20260505021026 48 20 0.9 1.7 0.00 0.06 0.00 92 1008.4
20260505020926 48 20 0.9 1.7 0.00 0.06 0.00 92 1008.4
20260505020822 48 20 0.9 1.7 0.00 0.06 0.00 92 1008.6
20260505020723 48 20 0.9 1.7 0.00 0.06 0.00 92 1008.4
20260505020623 48 20 0.9 1.7 0.00 0.06 0.00 92 1008.6
20260505020522 48 20 0.9 1.7 0.00 0.06 0.00 92 1008.6
20260505020422 48 20 0.9 1.7 0.00 0.06 0.00 92 1008.6
20260505020322 48 20 0.9 1.7 0.00 0.06 0.00 92 1008.6
20260505020223 48 20 0.9 1.7 0.00 0.06 0.00 92 1008.6
20260505020122 48 20 0.9 1.7 0.00 0.06 0.00 92 1008.6
20260505020022 48 20 0.9 1.7 0.00 0.06 0.00 92 1008.6
20260505015920 48 20 0.9 1.7 0.00 0.06 0.00 92 1008.6
20260505015818 48 20 0.9 1.7 0.00 0.06 0.00 91 1008.6
20260505015718 48 20 0.9 1.7 0.00 0.06 0.00 91 1008.6
20260505015617 48 20 0.9 2.6 0.00 0.06 0.00 91 1008.4
20260505015516 48 20 0.9 2.6 0.00 0.06 0.00 91 1008.4
20260505015412 48 20 0.9 2.6 0.00 0.06 0.00 91 1008.4
20260505015311 48 20 0.9 2.6 0.00 0.06 0.00 91 1008.6
20260505015208 48 20 0.9 2.6 0.00 0.06 0.00 91 1008.6
20260505015108 48 20 0.9 2.6 0.00 0.06 0.00 91 1008.4
20260505015006 48 20 0.9 2.6 0.00 0.06 0.00 91 1008.6
20260505014906 48 20 0.9 2.6 0.00 0.06 0.00 91 1008.6
20260505014804 48 20 0.9 2.6 0.00 0.06 0.00 91 1008.6
20260505014702 48 43 0.9 2.6 0.00 0.06 0.00 91 1008.4
20260505014602 48 51 0.9 1.7 0.00 0.06 0.00 91 1008.6
20260505014531 48 107 0.0 1.7 0.00 0.06 0.00 91 1008.6
20260505014501 48 108 0.0 1.7 0.00 0.06 0.00 91 1008.6
20260505014402 48 108 0.0 1.7 0.00 0.06 0.00 91 1008.6
20260505014303 48 108 0.0 0.9 0.00 0.06 0.00 91 1008.6
20260505014258 48 108 0.0 0.9 0.00 0.06 0.00 91 1008.6
20260505014245 48 108 0.0 0.9 0.00 0.06 0.00 91 1008.6
20260505014241 48 108 0.0 0.9 0.00 0.06 0.00 91 1008.6
20260505014001 48 108 0.0 0.9 0.00 0.06 0.00 91 1008.6
20260505013901 48 108 0.0 0.9 0.00 0.06 0.00 91 1008.7
20260505013801 48 108 0.0 0.9 0.00 0.06 0.00 90 1008.6
20260505013701 48 108 0.0 0.9 0.00 0.06 0.00 90 1008.6
20260505013601 48 108 0.0 0.9 0.00 0.06 0.00 90 1008.4
20260505013501 48 108 0.0 0.0 0.00 0.06 0.00 90 1008.6
20260505013401 48 108 0.0 0.0 0.00 0.06 0.00 90 1008.4
20260505013301 48 108 0.0 0.0 0.00 0.06 0.00 90 1008.4
20260505013201 48 108 0.0 0.0 0.00 0.06 0.00 90 1008.4
20260505013101 48 108 0.0 0.0 0.00 0.06 0.00 90 1008.4
20260505013030 48 108 0.0 0.0 0.00 0.06 0.00 90 1008.4
20260505013001 49 109 0.0 0.0 0.00 0.06 0.00 90 1008.4
20260505012901 49 108 0.0 0.0 0.00 0.06 0.00 90 1008.6
20260505012801 49 108 0.0 0.0 0.00 0.06 0.00 90 1008.6
20260505012701 49 108 0.0 0.0 0.00 0.06 0.00 90 1008.4
20260505012601 49 108 0.0 0.0 0.00 0.06 0.00 90 1008.6
20260505012529 49 108 0.0 0.0 0.00 0.06 0.00 90 1008.6
20260505012500 49 108 0.0 0.9 0.00 0.06 0.00 90 1008.6
20260505012400 49 108 0.0 0.9 0.00 0.06 0.00 90 1008.6
20260505012258 49 108 0.0 0.9 0.00 0.06 0.00 90 1008.4
20260505012203 49 108 0.0 0.9 0.00 0.06 0.00 90 1008.6
20260505012029 49 108 0.0 0.9 0.00 0.06 0.00 90 1008.6
20260505011957 49 108 0.0 0.9 0.00 0.06 0.00 90 1008.7
20260505011852 49 108 0.0 0.9 0.00 0.06 0.00 90 1008.6
20260505011752 49 108 0.0 0.9 0.00 0.06 0.00 90 1008.6
20260505011652 49 108 0.0 0.9 0.00 0.06 0.00 90 1008.6
20260505011552 49 108 0.0 0.9 0.00 0.06 0.00 90 1008.7
20260505011529 49 108 0.0 0.9 0.00 0.06 0.00 91 1008.7
20260505011452 49 108 0.0 0.9 0.00 0.06 0.00 90 1008.6
20260505011352 49 108 0.0 0.0 0.00 0.06 0.00 91 1008.6
20260505011252 49 108 0.0 0.0 0.00 0.06 0.00 91 1008.7
20260505011152 49 108 0.0 0.0 0.00 0.06 0.00 91 1008.6
20260505011031 49 108 0.0 0.0 0.00 0.06 0.00 90 1008.7
20260505010953 49 108 0.0 0.0 0.00 0.06 0.00 90 1008.6
20260505010853 49 108 0.0 0.0 0.00 0.06 0.00 90 1008.6
20260505010752 49 108 0.0 0.0 0.00 0.06 0.00 90 1008.6
20260505010650 49 108 0.0 0.0 0.00 0.06 0.00 90 1008.6
20260505010529 49 108 0.0 0.0 0.00 0.06 0.00 90 1008.6
20260505010450 49 108 0.0 0.0 0.00 0.06 0.00 90 1008.6
20260505010348 49 108 0.0 0.0 0.00 0.06 0.00 90 1008.6
20260505010247 49 108 0.0 0.0 0.00 0.06 0.00 90 1008.6
20260505010144 49 108 0.0 0.0 0.00 0.06 0.00 90 1008.6
20260505010029 49 108 0.0 0.0 0.00 0.06 0.00 90 1008.6
20260505005944 49 108 0.0 0.0 0.00 0.06 0.00 90 1008.6
20260505005843 49 108 0.0 0.0 0.00 0.06 0.00 90 1008.7
20260505005740 49 108 0.0 0.0 0.00 0.06 0.00 90 1008.6
20260505005640 49 108 0.0 0.0 0.00 0.06 0.00 90 1008.6
20260505005529 49 108 0.0 0.0 0.00 0.06 0.00 90 1008.7
20260505005441 49 108 0.0 0.0 0.00 0.06 0.00 90 1008.7
20260505005336 49 108 0.0 0.0 0.00 0.06 0.00 90 1008.6
20260505005240 49 108 0.0 0.0 0.00 0.06 0.00 90 1008.7
20260505005134 50 108 0.0 0.0 0.00 0.06 0.00 90 1008.7
20260505005028 50 108 0.0 0.0 0.00 0.06 0.00 90 1008.6
20260505004936 50 108 0.0 0.0 0.00 0.06 0.00 90 1008.7
20260505004829 50 108 0.0 0.0 0.00 0.06 0.00 90 1008.7
20260505004734 50 108 0.0 0.0 0.00 0.06 0.00 90 1008.7
20260505004629 50 108 0.0 0.9 0.00 0.06 0.00 90 1008.7
20260505004531 50 108 0.0 0.9 0.00 0.06 0.00 89 1008.7
20260505004429 50 108 0.0 0.9 0.00 0.06 0.00 89 1008.7
20260505004329 50 108 0.0 0.9 0.00 0.06 0.00 89 1008.7
20260505004234 50 108 0.0 0.9 0.00 0.06 0.00 89 1008.7
20260505004129 50 108 0.0 0.9 0.00 0.06 0.00 89 1008.7
20260505004031 50 108 0.0 0.9 0.00 0.06 0.00 89 1008.7
20260505003929 50 108 0.0 0.9 0.00 0.06 0.00 89 1008.7
20260505003826 50 108 0.0 0.9 0.00 0.06 0.00 89 1008.8
20260505003729 50 108 0.0 1.7 0.00 0.06 0.00 89 1008.8
20260505003626 50 108 0.0 1.7 0.00 0.06 0.00 89 1008.8
20260505003524 50 108 0.9 1.7 0.00 0.06 0.00 89 1008.8
20260505003424 50 108 0.9 1.7 0.00 0.06 0.00 90 1008.8
20260505003322 50 108 0.9 1.7 0.00 0.06 0.00 90 1008.9
20260505003224 50 108 0.9 1.7 0.00 0.06 0.00 90 1008.8
20260505003117 50 108 0.9 1.7 0.00 0.06 0.00 90 1008.8
20260505003016 50 108 0.9 1.7 0.00 0.06 0.00 90 1008.8
20260505002916 50 108 0.9 1.7 0.00 0.06 0.00 90 1008.8
20260505002816 50 108 0.0 1.7 0.00 0.06 0.00 90 1008.8
20260505002718 50 108 0.0 1.7 0.00 0.06 0.00 90 1008.8
20260505002610 50 108 0.0 1.7 0.00 0.06 0.00 90 1008.8
20260505002529 50 108 0.0 1.7 0.00 0.06 0.00 90 1008.8
20260505002508 50 109 0.0 1.7 0.00 0.06 0.00 89 1008.8
20260505002409 50 109 0.0 1.7 0.00 0.06 0.00 89 1008.8
20260505002211 51 109 0.0 0.0 0.00 0.06 0.00 89 1008.8
20260505002104 50 109 0.0 0.0 0.00 0.06 0.00 90 1008.9
20260505002025 51 109 0.0 0.0 0.00 0.06 0.00 90 1008.9
20260505002002 51 109 0.0 0.0 0.00 0.06 0.00 89 1008.9
20260505001902 51 109 0.0 0.0 0.00 0.06 0.00 90 1008.9
20260505001802 51 109 0.0 0.0 0.00 0.06 0.00 90 1008.9
20260505001706 51 109 0.0 0.0 0.00 0.06 0.00 90 1008.9
20260505001602 51 109 0.0 0.0 0.00 0.06 0.00 90 1008.9
20260505001501 51 109 0.0 0.0 0.00 0.06 0.00 90 1008.9
20260505001401 51 109 0.0 0.0 0.00 0.06 0.00 90 1008.9
20260505001301 51 109 0.0 0.0 0.00 0.06 0.00 90 1008.9
20260505001201 51 109 0.0 0.0 0.00 0.06 0.00 90 1008.9
20260505001102 51 109 0.0 0.0 0.00 0.06 0.00 90 1008.9
20260505001014 51 109 0.0 0.0 0.00 0.06 0.00 90 1008.9
20260505001001 51 109 0.0 0.9 0.00 0.06 0.00 90 1008.9
20260505000901 51 109 0.0 0.9 0.00 0.06 0.00 90 1008.9
20260505000801 51 109 0.0 1.7 0.00 0.06 0.00 90 1008.9
20260505000701 51 109 0.0 1.7 0.00 0.06 0.00 90 1008.9
20260505000600 51 109 0.0 1.7 0.00 0.06 0.00 90 1008.9
20260505000501 51 109 0.0 1.7 0.00 0.06 0.00 90 1008.9
20260505000401 51 109 0.0 1.7 0.00 0.06 0.00 90 1008.9
20260505000301 51 109 0.0 1.7 0.00 0.06 0.00 90 1009.0
20260505000235 51 109 0.0 1.7 0.00 0.06 0.00 90 1009.0
20260505000228 51 109 0.0 1.7 0.00 0.06 0.00 90 1009.0
20260505000220 51 109 0.0 1.7 0.00 0.06 0.00 90 1009.0
20260505000001 51 109 0.0 1.7 0.00 0.06 0.00 90 1009.0
20260504235900 51 109 0.0 1.7 0.00 0.06 0.00 90 1009.0
20260504235800 51 109 0.0 0.9 0.00 0.06 0.00 90 1009.0
20260504235741 51 109 0.0 0.9 0.00 0.06 0.00 90 1009.0
20260504235729 51 109 0.0 0.9 0.00 0.06 0.00 90 1009.0
20260504235721 51 109 0.0 0.9 0.00 0.06 0.00 90 1009.0
20260504235500 51 109 0.0 0.9 0.00 0.06 0.00 90 1009.0
20260504235401 51 109 0.0 0.9 0.00 0.06 0.00 90 1009.0
20260504235301 51 109 0.0 0.0 0.00 0.06 0.00 90 1009.0
20260504235201 51 109 0.0 0.0 0.00 0.06 0.00 90 1009.0
20260504235101 51 109 0.0 0.0 0.00 0.06 0.00 90 1009.0
20260504235000 51 109 0.0 0.9 0.00 0.06 0.00 90 1009.1
20260504234900 51 109 0.0 0.9 0.00 0.06 0.00 90 1009.1
20260504234806 51 109 0.0 1.7 0.00 0.06 0.00 90 1009.1
20260504234702 51 109 0.0 1.7 0.00 0.06 0.00 90 1009.1
20260504234601 51 109 0.0 1.7 0.00 0.06 0.00 90 1009.1
20260504234502 51 109 0.0 1.7 0.00 0.06 0.00 90 1009.1
20260504234302 51 109 0.0 1.7 0.00 0.06 0.00 90 1009.1
20260504234201 51 109 0.0 1.7 0.00 0.06 0.00 90 1009.1
20260504234102 51 109 0.0 1.7 0.00 0.06 0.00 90 1009.1
20260504234001 51 109 0.0 1.7 0.00 0.06 0.00 90 1009.2
20260504233901 51 109 0.0 1.7 0.00 0.06 0.00 90 1009.2
20260504233801 51 109 0.0 1.7 0.00 0.06 0.00 90 1009.2
20260504233731 51 109 0.0 1.7 0.00 0.06 0.00 90 1009.2
20260504233725 51 109 0.0 1.7 0.00 0.06 0.00 90 1009.2
20260504233717 51 109 0.0 1.7 0.00 0.06 0.00 90 1009.2
20260504233501 51 109 0.0 1.7 0.00 0.06 0.00 90 1009.2
20260504233401 51 109 0.0 1.7 0.00 0.06 0.00 90 1009.3
20260504233301 51 109 0.0 1.7 0.00 0.06 0.00 90 1009.3
20260504233232 51 110 0.0 1.7 0.00 0.06 0.00 90 1009.2
20260504233224 51 109 0.0 1.7 0.00 0.06 0.00 90 1009.2
20260504233216 51 110 0.0 1.7 0.00 0.06 0.00 90 1009.3
20260504233001 51 110 0.0 1.7 0.00 0.06 0.00 90 1009.2
20260504232900 51 110 0.0 1.7 0.00 0.06 0.00 90 1009.3
20260504232800 51 110 0.0 1.7 0.00 0.06 0.00 90 1009.3
20260504232730 51 110 0.0 0.9 0.00 0.06 0.00 90 1009.3
20260504232721 51 110 0.0 0.9 0.00 0.06 0.00 90 1009.3
20260504232713 51 110 0.0 0.9 0.00 0.06 0.00 90 1009.3
20260504232456 51 111 0.0 0.9 0.00 0.06 0.00 90 1009.3
20260504232356 51 111 0.0 0.9 0.00 0.06 0.00 90 1009.3
20260504232256 51 111 0.0 0.9 0.00 0.06 0.00 90 1009.3
20260504232156 51 110 0.0 0.9 0.00 0.06 0.00 90 1009.3
20260504232056 51 110 0.0 1.7 0.00 0.06 0.00 90 1009.3
20260504232002 51 110 0.0 1.7 0.00 0.06 0.00 90 1009.3
20260504231953 51 111 0.0 1.7 0.00 0.06 0.00 90 1009.3
20260504231854 51 111 0.0 1.7 0.00 0.06 0.00 90 1009.4
20260504231754 51 111 0.0 1.7 0.00 0.06 0.00 90 1009.4
20260504231725 51 108 0.0 1.7 0.00 0.06 0.00 89 1009.4
20260504231721 51 108 0.0 1.7 0.00 0.06 0.00 90 1009.4
20260504231713 51 108 0.0 1.7 0.00 0.06 0.00 90 1009.4
20260504231450 51 108 0.0 1.7 0.00 0.06 0.00 89 1009.4
20260504231349 51 109 0.0 1.7 0.00 0.06 0.00 89 1009.4
20260504231250 51 108 0.0 1.7 0.00 0.06 0.00 89 1009.5
20260504231150 51 109 0.0 1.7 0.00 0.06 0.00 89 1009.4
20260504231049 51 109 0.0 1.7 0.00 0.06 0.00 89 1009.5
20260504231001 51 109 0.0 1.7 0.00 0.06 0.00 89 1009.5
20260504230948 51 109 0.0 1.7 0.00 0.06 0.00 89 1009.5
20260504230846 51 109 0.0 1.7 0.00 0.06 0.00 89 1009.5
20260504230746 51 107 0.0 1.7 0.00 0.06 0.00 89 1009.5
20260504230644 51 107 0.0 1.7 0.00 0.06 0.00 89 1009.5
20260504230542 51 101 0.0 1.7 0.00 0.06 0.00 89 1009.4
20260504230502 51 101 0.0 1.7 0.00 0.06 0.00 89 1009.4
20260504230440 51 103 0.0 1.7 0.00 0.06 0.00 89 1009.5
20260504230340 51 105 0.0 1.7 0.00 0.06 0.00 89 1009.5
20260504230240 51 105 0.0 1.7 0.00 0.06 0.00 89 1009.5
20260504230222 51 105 0.0 1.7 0.00 0.06 0.00 89 1009.5
20260504230214 51 105 0.9 1.7 0.00 0.06 0.00 89 1009.5
20260504225936 51 105 0.9 1.7 0.00 0.06 0.00 89 1009.4
20260504225834 51 105 0.9 2.6 0.00 0.06 0.00 89 1009.5
20260504225732 51 105 0.9 2.6 0.00 0.06 0.00 88 1009.4
20260504225632 51 96 0.9 2.6 0.00 0.06 0.00 88 1009.5
20260504225502 51 97 0.9 2.6 0.00 0.06 0.00 88 1009.5
20260504225430 51 97 0.9 2.6 0.00 0.06 0.00 88 1009.5
20260504225330 52 97 0.9 2.6 0.00 0.06 0.00 88 1009.5
20260504225230 52 97 0.9 2.6 0.00 0.06 0.00 88 1009.5
20260504225130 52 97 0.9 2.6 0.00 0.06 0.00 88 1009.5
20260504225001 52 97 0.9 2.6 0.00 0.06 0.00 87 1009.5
20260504224930 52 97 0.9 2.6 0.00 0.06 0.00 87 1009.5
20260504224830 52 104 0.9 1.7 0.00 0.06 0.00 87 1009.5
20260504224727 52 100 0.9 2.6 0.00 0.06 0.00 88 1009.5
20260504224628 52 94 0.9 3.5 0.00 0.06 0.00 88 1009.5
20260504224502 52 103 0.9 6.1 0.00 0.06 0.00 88 1009.5
20260504224428 52 103 0.9 6.1 0.00 0.06 0.00 88 1009.5
20260504224328 52 103 1.7 6.1 0.00 0.06 0.00 88 1009.5
20260504224224 52 103 1.7 6.1 0.00 0.06 0.00 88 1009.5
20260504224124 52 103 1.7 6.1 0.00 0.06 0.00 88 1009.5
20260504224001 52 103 0.9 6.1 0.00 0.06 0.00 87 1009.5
20260504223924 52 103 0.9 6.1 0.00 0.06 0.00 87 1009.5
20260504223822 53 103 0.9 6.1 0.00 0.06 0.00 87 1009.5
20260504223718 53 125 0.9 6.1 0.00 0.06 0.00 88 1009.5
20260504223618 53 126 0.9 6.1 0.00 0.06 0.00 88 1009.5
20260504223518 53 96 0.0 2.6 0.00 0.06 0.00 88 1009.5
20260504223458 53 72 0.0 2.6 0.00 0.06 0.00 88 1009.5
20260504223418 53 71 0.0 2.6 0.00 0.06 0.00 88 1009.5
20260504223316 53 318 0.0 0.0 0.00 0.06 0.00 88 1009.5
20260504223222 53 317 0.0 1.7 0.00 0.06 0.00 88 1009.4
20260504223216 53 317 0.0 1.7 0.00 0.06 0.00 88 1009.5
20260504223212 53 317 0.0 1.7 0.00 0.06 0.00 88 1009.5
20260504223203 53 317 0.0 1.7 0.00 0.06 0.00 88 1009.4
20260504222911 53 317 0.0 1.7 0.00 0.06 0.00 88 1009.4
20260504222809 53 317 0.9 1.7 0.00 0.06 0.00 88 1009.5
20260504222710 53 317 0.9 1.7 0.00 0.06 0.00 88 1009.4
20260504222612 53 317 0.9 1.7 0.00 0.06 0.00 88 1009.4
20260504222508 53 317 0.9 1.7 0.00 0.06 0.00 88 1009.4
20260504222452 53 317 0.9 1.7 0.00 0.06 0.00 88 1009.5
20260504222406 53 317 0.9 1.7 0.00 0.06 0.00 88 1009.5
20260504222305 53 317 0.9 1.7 0.00 0.06 0.00 88 1009.5
20260504222204 53 317 0.9 1.7 0.00 0.06 0.00 88 1009.5
20260504222101 53 317 0.9 1.7 0.00 0.06 0.00 88 1009.4
20260504222001 53 317 0.9 1.7 0.00 0.06 0.00 88 1009.5
20260504221952 53 317 0.9 1.7 0.00 0.06 0.00 88 1009.5
20260504221901 53 317 0.9 1.7 0.00 0.06 0.00 88 1009.5
20260504221801 53 317 0.9 1.7 0.00 0.06 0.00 88 1009.5
20260504221701 53 317 0.9 1.7 0.00 0.06 0.00 88 1009.5
20260504221601 53 317 0.9 1.7 0.00 0.06 0.00 88 1009.5
20260504221501 53 317 0.9 1.7 0.00 0.06 0.00 88 1009.5
20260504221451 53 317 0.9 1.7 0.00 0.06 0.00 88 1009.5
20260504221405 54 317 0.9 1.7 0.00 0.06 0.00 88 1009.5
20260504221301 54 317 0.0 1.7 0.00 0.06 0.00 88 1009.5
20260504221201 54 317 0.0 1.7 0.00 0.06 0.00 88 1009.5
20260504221101 54 317 0.0 1.7 0.00 0.06 0.00 88 1009.5
20260504221001 54 317 0.0 1.7 0.00 0.06 0.00 88 1009.5
20260504220952 54 317 0.9 1.7 0.00 0.06 0.00 88 1009.5
20260504220901 54 317 0.9 1.7 0.00 0.06 0.00 88 1009.5
20260504220801 54 317 0.9 1.7 0.00 0.06 0.00 87 1009.6
20260504220701 54 317 0.9 1.7 0.00 0.06 0.00 87 1009.6
20260504220606 54 317 0.9 1.7 0.00 0.06 0.00 87 1009.6
20260504220501 54 317 0.9 1.7 0.00 0.06 0.00 87 1009.6
20260504220452 54 317 0.9 1.7 0.00 0.06 0.00 87 1009.5
20260504220401 54 317 0.9 1.7 0.00 0.06 0.00 87 1009.5
20260504220300 54 317 0.9 1.7 0.00 0.06 0.00 87 1009.6
20260504220200 54 317 0.9 1.7 0.00 0.06 0.00 87 1009.6
20260504220103 54 317 0.9 1.7 0.00 0.06 0.00 87 1009.6
20260504220001 54 317 0.0 1.7 0.00 0.06 0.00 88 1009.7
20260504215951 54 317 0.0 1.7 0.00 0.06 0.06 88 1009.6
20260504215901 54 317 0.0 1.7 0.00 0.06 0.06 88 1009.6
20260504215801 54 317 0.0 1.7 0.00 0.06 0.06 88 1009.7
20260504215701 54 317 0.0 1.7 0.00 0.06 0.06 88 1009.7
20260504215600 54 317 0.0 0.0 0.00 0.06 0.06 87 1009.7
20260504215500 54 317 0.0 0.9 0.00 0.06 0.06 87 1009.7
20260504215449 54 317 0.0 0.9 0.00 0.06 0.06 87 1009.7
20260504215400 54 317 0.0 0.9 0.00 0.06 0.06 87 1009.7
20260504215300 54 317 0.0 0.9 0.00 0.06 0.06 87 1009.7
20260504215201 54 317 0.0 1.7 0.00 0.06 0.06 87 1009.7
20260504215101 54 317 0.0 1.7 0.00 0.06 0.06 87 1009.7
20260504215002 54 317 0.0 1.7 0.00 0.06 0.06 87 1009.7
20260504214948 54 317 0.0 1.7 0.00 0.06 0.06 87 1009.8
20260504214901 54 317 0.0 1.7 0.00 0.06 0.06 87 1009.8
20260504214759 54 317 0.0 1.7 0.00 0.06 0.06 87 1009.8
20260504214717 54 317 0.0 1.7 0.00 0.06 0.06 87 1009.8
20260504214712 54 317 0.0 1.7 0.00 0.06 0.06 87 1009.8
20260504214708 54 317 0.0 1.7 0.00 0.06 0.06 87 1009.8
20260504214700 54 317 0.0 1.7 0.00 0.06 0.06 87 1009.9
20260504214358 54 317 0.0 1.7 0.00 0.06 0.06 87 1009.9
20260504214253 54 317 0.0 1.7 0.00 0.06 0.06 87 1009.9
20260504214153 54 317 0.0 0.9 0.00 0.06 0.06 87 1009.9
20260504214053 54 317 0.0 0.0 0.00 0.06 0.06 87 1009.9
20260504213946 54 317 0.0 0.0 0.00 0.06 0.06 87 1009.8
20260504213852 55 317 0.0 0.0 0.00 0.06 0.06 86 1009.9
20260504213747 55 317 0.0 0.0 0.00 0.06 0.06 87 1009.9
20260504213647 55 317 0.0 0.9 0.00 0.06 0.06 86 1009.9
20260504213547 55 317 0.0 1.7 0.00 0.06 0.06 86 1009.9
20260504213445 55 317 0.9 2.6 0.00 0.06 0.06 86 1009.9
20260504213347 55 317 0.9 2.6 0.00 0.06 0.06 86 1009.9
20260504213247 55 317 0.9 2.6 0.00 0.06 0.06 86 1009.9
20260504213145 55 317 0.9 2.6 0.00 0.06 0.06 86 1010.0
20260504213046 55 317 0.9 2.6 0.00 0.06 0.06 86 1010.0
20260504212942 55 317 0.9 2.6 0.00 0.06 0.06 86 1010.0
20260504212904 55 317 0.9 2.6 0.00 0.06 0.06 86 1010.0
20260504212741 55 317 0.9 2.6 0.00 0.06 0.06 86 1010.0
20260504212639 55 317 0.9 2.6 0.00 0.06 0.06 86 1010.0
20260504212539 55 317 0.9 2.6 0.00 0.06 0.06 86 1010.0
20260504212443 55 317 0.9 2.6 0.00 0.06 0.06 86 1010.0
20260504212437 55 318 0.9 2.6 0.00 0.06 0.06 86 1010.0
20260504212335 55 319 0.9 2.6 0.00 0.06 0.06 86 1010.0
20260504212229 55 319 0.9 2.6 0.00 0.06 0.06 86 1010.0
20260504212129 55 319 1.7 2.6 0.00 0.06 0.06 86 1010.0
20260504212029 55 319 1.7 2.6 0.00 0.06 0.06 86 1010.0
20260504211929 55 319 1.7 2.6 0.00 0.06 0.06 86 1010.0
20260504211829 55 319 0.9 2.6 0.00 0.06 0.06 85 1010.0
20260504211729 55 319 1.7 2.6 0.00 0.06 0.06 85 1010.0
20260504211629 55 319 1.7 2.6 0.00 0.06 0.06 85 1010.0
20260504211529 55 319 1.7 2.6 0.00 0.06 0.06 85 1009.9
20260504211429 55 319 1.7 2.6 0.00 0.06 0.06 85 1010.0
20260504211330 55 319 1.7 2.6 0.00 0.06 0.06 85 1010.0
20260504211229 55 319 0.9 2.6 0.00 0.06 0.06 85 1010.0
20260504211129 55 296 0.9 2.6 0.00 0.06 0.06 85 1010.0
20260504211029 55 294 0.9 2.6 0.00 0.06 0.06 85 1010.0
20260504210942 55 295 0.9 2.6 0.00 0.06 0.06 85 1010.0
20260504210929 55 290 0.9 2.6 0.00 0.06 0.06 85 1010.0
20260504210829 55 290 0.9 2.6 0.00 0.06 0.06 85 1010.0
20260504210729 55 290 0.9 2.6 0.00 0.06 0.06 85 1010.0
20260504210629 56 276 0.9 2.6 0.00 0.06 0.06 86 1010.0
20260504210529 56 267 0.0 2.6 0.00 0.06 0.06 86 1010.0
20260504210440 56 260 0.0 2.6 0.00 0.06 0.06 86 1010.0
20260504210429 56 223 0.0 1.7 0.00 0.06 0.06 86 1010.0
20260504210329 56 150 0.0 1.7 0.00 0.06 0.06 86 1009.9
20260504210229 56 150 0.0 1.7 0.00 0.06 0.06 86 1009.9
20260504210207 56 150 0.0 1.7 0.00 0.06 0.06 85 1010.0
20260504210202 56 150 0.0 1.7 0.00 0.06 0.06 86 1009.9
20260504210158 56 150 0.0 1.7 0.00 0.06 0.06 86 1009.9
20260504205929 56 150 0.0 1.7 0.00 0.06 0.06 85 1010.0
20260504205829 56 150 0.0 1.7 0.00 0.06 0.06 85 1009.9
20260504205729 56 150 0.0 0.9 0.00 0.06 0.06 84 1009.9
20260504205629 56 150 0.0 0.9 0.00 0.06 0.06 84 1010.0
20260504205529 56 150 0.0 0.9 0.00 0.06 0.06 84 1009.9
20260504205429 56 150 0.0 0.9 0.00 0.06 0.06 84 1009.9
20260504205328 56 150 0.0 1.7 0.00 0.06 0.06 84 1009.9
20260504205228 56 150 0.0 1.7 0.00 0.06 0.06 84 1009.9
20260504205203 56 150 0.9 1.7 0.00 0.06 0.06 84 1009.9
20260504205158 56 150 0.0 1.7 0.00 0.06 0.06 84 1009.9
20260504205154 56 150 0.0 1.7 0.00 0.06 0.06 84 1009.9
20260504204928 56 150 0.9 1.7 0.00 0.06 0.06 84 1009.9
20260504204829 56 150 0.9 2.6 0.00 0.06 0.06 85 1009.9
20260504204729 56 150 0.9 2.6 0.00 0.06 0.06 83 1009.9
20260504204629 56 150 0.9 2.6 0.00 0.06 0.06 83 1009.9
20260504204529 56 150 0.9 2.6 0.00 0.06 0.06 83 1010.0
20260504204429 56 150 0.9 2.6 0.00 0.06 0.06 83 1010.0
20260504204329 56 150 0.9 2.6 0.00 0.06 0.06 83 1010.0
20260504204229 56 150 0.9 2.6 0.00 0.06 0.06 83 1010.0
20260504204129 56 150 0.9 2.6 0.00 0.06 0.06 83 1010.0
20260504204029 57 150 0.9 2.6 0.00 0.06 0.06 83 1010.1
20260504203928 57 150 0.9 2.6 0.00 0.06 0.06 83 1010.1
20260504203828 57 150 0.9 2.6 0.00 0.06 0.06 83 1010.1
20260504203729 57 149 0.9 2.6 0.00 0.06 0.06 83 1010.0
20260504203629 57 115 0.9 2.6 0.00 0.06 0.06 83 1010.1
20260504203529 57 115 0.9 2.6 0.00 0.06 0.06 83 1010.1
20260504203429 57 115 0.9 2.6 0.00 0.06 0.06 81 1010.1
20260504203329 57 115 0.9 2.6 0.00 0.06 0.06 80 1010.1
20260504203230 57 115 0.9 2.6 0.00 0.06 0.06 81 1010.0
20260504203129 57 116 0.9 2.6 0.00 0.06 0.06 82 1010.0
20260504203029 57 115 0.9 2.6 0.00 0.06 0.06 82 1010.1
20260504202928 57 106 0.9 2.6 0.00 0.06 0.06 82 1010.0
20260504202829 57 105 0.9 2.6 0.00 0.06 0.06 83 1010.0
20260504202729 57 96 0.9 2.6 0.00 0.06 0.06 82 1010.0
20260504202629 57 95 0.9 2.6 0.00 0.06 0.06 82 1010.0
20260504202529 57 95 0.9 3.5 0.00 0.06 0.06 82 1010.0
20260504202437 57 94 0.9 3.5 0.00 0.06 0.06 83 1010.0
20260504202429 57 93 0.9 3.5 0.00 0.06 0.06 83 1010.0
20260504202328 56 92 0.9 3.5 0.00 0.06 0.06 82 1010.0
20260504202230 57 92 0.9 3.5 0.00 0.06 0.06 82 1010.0
20260504202128 56 94 0.9 3.5 0.00 0.06 0.06 82 1009.9
20260504202029 56 61 0.9 3.5 0.00 0.06 0.06 82 1010.0
20260504201936 56 109 0.9 3.5 0.00 0.06 0.06 82 1009.9
20260504201929 56 110 0.9 3.5 0.00 0.06 0.06 82 1009.9
20260504201828 56 100 0.9 3.5 0.00 0.06 0.06 82 1010.0
20260504201729 56 101 0.9 3.5 0.00 0.06 0.06 83 1010.0
20260504201628 56 101 0.9 3.5 0.00 0.06 0.06 84 1010.0
20260504201529 56 97 0.9 2.6 0.00 0.06 0.06 84 1010.0
20260504201434 56 98 0.9 2.6 0.00 0.06 0.06 84 1010.0
20260504201427 56 99 0.9 2.6 0.00 0.06 0.06 84 1010.0
20260504201327 56 95 0.0 2.6 0.00 0.06 0.06 84 1010.1
20260504201227 56 105 0.0 2.6 0.00 0.06 0.06 85 1010.1
20260504201127 56 102 0.0 1.7 0.00 0.06 0.06 85 1010.1
20260504201027 57 105 0.0 1.7 0.00 0.06 0.06 85 1010.1
20260504200927 57 104 0.0 1.7 0.00 0.06 0.06 84 1010.1
20260504200824 57 104 0.0 1.7 0.00 0.06 0.06 84 1010.2
20260504200720 57 104 0.0 1.7 0.00 0.06 0.06 85 1010.2
20260504200620 57 104 0.0 1.7 0.00 0.06 0.06 85 1010.2
20260504200521 57 104 0.0 1.7 0.00 0.06 0.06 85 1010.2
20260504200420 57 104 0.9 1.7 0.00 0.06 0.06 85 1010.4
20260504200320 57 104 0.9 1.7 0.00 0.06 0.06 85 1010.4
20260504200220 57 104 0.9 1.7 0.00 0.06 0.06 85 1010.4
20260504200121 57 104 0.9 2.6 0.00 0.06 0.06 85 1010.4
20260504200021 57 104 0.9 2.6 0.00 0.06 0.06 84 1010.4
20260504195935 57 104 0.9 2.6 0.00 0.06 0.06 85 1010.4
20260504195921 57 103 0.9 2.6 0.00 0.06 0.06 85 1010.4
20260504195821 57 104 0.9 2.6 0.01 0.06 0.06 84 1010.4
20260504195718 57 104 0.9 2.6 0.01 0.06 0.06 85 1010.5
20260504195618 57 104 0.9 2.6 0.01 0.06 0.06 84 1010.5
20260504195514 57 103 0.9 3.5 0.01 0.06 0.06 83 1010.5
20260504195415 57 103 0.9 3.5 0.02 0.06 0.06 83 1010.4
20260504195315 57 103 0.9 3.5 0.02 0.06 0.06 83 1010.4
20260504195214 57 103 1.7 6.1 0.02 0.06 0.06 83 1010.4
20260504195157 57 107 1.7 7.0 0.02 0.06 0.06 83 1010.4
20260504195151 57 104 1.7 7.0 0.02 0.06 0.06 83 1010.2
20260504195147 57 107 1.7 7.0 0.02 0.06 0.06 83 1010.2
20260504194915 57 107 1.7 7.0 0.02 0.06 0.06 82 1010.4
20260504194815 57 108 1.7 7.0 0.03 0.06 0.06 82 1010.4
20260504194715 57 110 2.6 7.0 0.03 0.06 0.06 82 1010.2
20260504194615 57 111 2.6 7.0 0.04 0.06 0.06 82 1010.2
20260504194514 57 127 2.6 7.0 0.05 0.06 0.06 82 1010.1
20260504194414 57 128 2.6 7.0 0.05 0.06 0.06 82 1010.2
20260504194314 57 129 2.6 7.0 0.06 0.06 0.06 83 1010.2
20260504194214 57 140 2.6 7.0 0.06 0.06 0.06 82 1010.2
20260504194115 57 155 1.7 6.1 0.06 0.06 0.06 82 1010.2
20260504194015 57 123 1.7 6.1 0.06 0.06 0.06 83 1010.2
20260504193914 57 153 1.7 6.1 0.06 0.06 0.06 82 1010.2
20260504193815 57 150 1.7 6.1 0.06 0.06 0.06 83 1010.1
20260504193715 57 163 1.7 6.1 0.06 0.06 0.06 83 1010.1
20260504193611 57 173 1.7 6.1 0.06 0.06 0.06 83 1010.2
20260504193512 57 161 1.7 6.1 0.06 0.06 0.06 83 1010.1
20260504193434 57 163 0.9 6.1 0.06 0.06 0.06 83 1010.1
20260504193411 57 175 0.9 6.1 0.06 0.06 0.06 83 1010.1
20260504193311 57 148 0.9 3.5 0.06 0.06 0.06 83 1010.1
20260504193211 57 114 0.9 2.6 0.06 0.06 0.06 82 1010.1
20260504193111 57 96 0.9 2.6 0.06 0.06 0.06 82 1010.0
20260504193010 57 96 0.9 3.5 0.06 0.06 0.06 82 1010.0
20260504192910 57 95 0.9 3.5 0.06 0.06 0.06 82 1010.0
20260504192811 57 96 0.9 3.5 0.06 0.06 0.06 81 1010.0
20260504192711 57 101 0.9 3.5 0.06 0.06 0.06 81 1010.0
20260504192611 58 101 0.9 3.5 0.06 0.06 0.06 81 1010.0
20260504192511 58 98 0.9 3.5 0.06 0.06 0.06 81 1010.0
20260504192410 58 101 0.9 3.5 0.06 0.06 0.06 81 1010.0
20260504192310 58 101 0.9 3.5 0.06 0.06 0.06 81 1010.0
20260504192210 58 111 0.9 3.5 0.06 0.06 0.06 81 1010.0
20260504192110 58 111 0.9 3.5 0.06 0.06 0.06 82 1010.0
20260504192010 58 105 0.9 3.5 0.06 0.06 0.06 81 1010.0
20260504191932 58 94 0.9 3.5 0.06 0.06 0.06 81 1010.0
20260504191911 58 91 0.9 3.5 0.06 0.06 0.06 81 1010.0
20260504191811 58 91 1.7 5.2 0.06 0.06 0.06 81 1010.0
20260504191707 58 90 1.7 5.2 0.06 0.06 0.06 81 1010.0
20260504191606 58 90 1.7 6.1 0.06 0.06 0.06 81 1010.0
20260504191506 58 90 1.7 6.1 0.06 0.06 0.06 81 1010.1
20260504191431 58 84 1.7 6.1 0.06 0.06 0.06 81 1010.1
20260504191407 58 90 1.7 6.1 0.06 0.06 0.06 81 1010.1
20260504191306 58 85 1.7 6.1 0.06 0.06 0.06 80 1010.1
20260504191206 58 96 1.7 6.1 0.06 0.06 0.06 80 1010.1
20260504191106 58 92 2.6 6.1 0.06 0.06 0.06 80 1010.1
20260504191007 59 103 2.6 6.1 0.06 0.06 0.06 80 1010.2
20260504190930 59 61 1.7 6.1 0.06 0.06 0.06 80 1010.2
20260504190906 59 106 1.7 6.1 0.06 0.06 0.06 80 1010.2
20260504190806 59 88 1.7 6.1 0.06 0.06 0.06 80 1010.4
20260504190706 59 115 1.7 6.1 0.06 0.06 0.06 80 1010.4
20260504190652 59 82 1.7 3.5 0.06 0.06 0.06 78 1010.5
20260504190646 59 88 1.7 4.3 0.06 0.06 0.06 79 1010.5
20260504190640 59 79 1.7 4.3 0.06 0.06 0.06 79 1010.4
20260504190407 59 82 1.7 3.5 0.06 0.06 0.06 77 1010.5
20260504190307 60 81 1.7 3.5 0.06 0.06 0.06 77 1010.5
20260504190207 60 101 1.7 3.5 0.06 0.06 0.06 76 1010.4
20260504190107 60 91 1.7 3.5 0.06 0.06 0.06 76 1010.5
20260504190007 60 116 1.7 4.3 0.06 0.06 0.06 76 1010.5
20260504185931 60 96 1.7 4.3 0.06 0.06 0.05 76 1010.5
20260504185911 60 114 1.7 4.3 0.05 0.05 0.05 76 1010.5
20260504185802 61 103 1.7 4.3 0.05 0.05 0.05 76 1010.6
20260504185702 61 111 2.6 5.2 0.05 0.05 0.05 75 1010.7
20260504185602 61 127 2.6 7.8 0.05 0.05 0.05 75 1010.7
20260504185503 62 115 3.5 9.6 0.05 0.05 0.04 76 1010.7
20260504185430 62 105 3.5 9.6 0.04 0.04 0.04 76 1010.8
20260504185421 63 230 6.1 15.6 0.03 0.03 0.02 72 1010.7
20260504185416 62 115 3.5 9.6 0.04 0.04 0.04 76 1010.8
20260504185407 62 134 4.3 9.6 0.04 0.04 0.04 74 1010.8
20260504185403 62 183 5.2 11.3 0.04 0.04 0.04 72 1010.8